[{"header": {"dx": 0.06612293990616946, "dy": 0.0552356325346848, "nx": 98, "ny": 59, "la1": 35.046912555036876, "la2": 31.78801023549047, "lo1": -121.43107172385933, "lo2": -114.95102361305473, "refTime": "2026041116", "parameterCategory": 1, "parameterNumber": 2}, "data": [-0.0, -0.61, -1.16, -1.88, -2.5, -2.8, -2.4, -2.4, -1.86, -1.86, -1.26, -1.26, -1.9, -1.2, -1.2, -0.0, -0.0, -0.0, -0.0, -0.0, -0.0, -0.0, -0.0, -1.79, -2.0, -2.8, -3.39, -3.39, -3.58, -3.58, -3.39, -3.39, -2.98, -2.97, -3.13, -3.13, -2.98, -2.23, -2.23, -2.98, -2.54, -2.24, 2.24, 2.21, 3.6, 4.57, 5.2, 5.21, 5.21, 5.2, 4.85, 3.95, 2.98, 2.84, 2.68, 2.76, 1.72, 0.79, -0.0, -0.88, -0.87, -1.2, -2.4, -2.21, -0.99, -0.0, 1.13, -0.0, -1.13, -2.84, -3.35, -2.53, -1.4, -1.4, -0.0, -1.26, -1.58, -0.0, 1.34, 1.34, 0.0, 0.0, 1.34, 1.79, -1.58, -0.85, -1.7, -2.51, -3.27, -3.6, -2.67, -2.51, -1.73, -0.89, -0.0, -0.0, -0.0, -0.89, -0.0, -0.0, -0.53, -0.65, -1.2, -1.9, -2.4, -2.4, -2.17, -1.86, -1.26, -2.21, -2.21, -1.2, -0.0, -0.0, -0.0, -0.0, -0.0, -0.0, -0.0, -0.0, -0.0, -0.0, 1.79, -1.79, -2.24, -2.0, -2.24, -2.24, -1.79, -1.58, -1.2, -1.4, -2.21, -2.4, -3.13, -2.97, -2.97, -2.68, -2.24, 0.0, 0.0, 2.23, 3.16, 4.6, 5.2, 5.21, 4.54, 4.6, 4.38, 3.58, 1.9, 1.49, 1.8, 1.7, 0.89, 0.8, -0.0, -0.0, -0.0, -0.0, -1.0, -1.58, -1.0, -0.0, -0.0, -1.2, -3.39, -3.9, -3.9, -3.35, -3.35, -2.53, -2.21, -2.98, -3.6, -0.0, 1.34, 1.34, 0.0, 0.0, 1.34, 1.79, -1.58, -0.85, -1.7, -2.51, -3.27, -3.6, -2.67, -2.51, -1.73, -0.89, -0.0, -0.0, -0.0, -0.89, -0.0, -0.0, -0.0, -0.0, -0.0, -0.71, -1.24, -1.86, -2.4, -2.4, -1.9, -1.24, -1.4, -1.2, -1.0, -0.0, -0.0, -0.0, -0.0, -0.0, -0.0, -0.0, 1.8, 2.53, -0.0, 0.89, -1.26, -1.79, -1.79, 1.34, -0.0, 1.79, 2.24, 2.53, 0.0, 0.0, -2.21, -2.8, -2.68, -2.0, -1.0, 0.0, 1.8, 2.68, 3.48, 3.93, 4.19, 3.79, 4.54, 4.8, 4.38, 2.68, 1.0, 1.0, 0.87, 0.76, -0.0, -0.0, -0.0, 0.81, 1.52, 1.55, 0.81, -0.0, -0.0, -0.0, -0.0, -2.97, -4.47, -4.82, -4.47, -4.82, -4.57, -3.58, -3.16, -3.93, -4.6, -3.35, -2.24, -2.24, -1.9, -2.4, -2.68, -2.24, -1.26, -0.85, -1.7, -3.4, -4.12, -3.4, -2.82, -2.47, -1.72, -0.0, -0.0, 0.83, -0.0, -0.89, -0.54, -0.0, -0.0, -0.0, -0.0, -0.0, -0.0, -0.71, -1.58, -2.8, -2.15, -1.24, -1.4, -1.2, -0.0, -0.0, -0.0, -0.0, -0.0, -0.0, -0.0, -0.0, 2.53, 1.4, 2.21, 3.58, 0.0, 0.0, -1.79, 1.79, -0.0, 1.4, 2.53, 4.0, 4.02, 3.13, 2.68, 2.24, -1.26, 0.0, 0.0, 0.98, 2.23, 2.84, 3.16, 3.58, 3.48, 3.35, 4.54, 4.8, 3.51, 1.79, -0.0, -0.0, 0.79, -0.0, -0.0, -0.0, -0.0, -0.0, 0.82, 1.62, 2.31, 1.72, 0.96, -0.0, -0.87, -2.97, -3.95, -4.15, -4.82, -5.36, -5.73, -4.4, -3.84, -4.6, -4.98, -5.26, -3.58, -3.58, -3.58, -4.02, -3.58, -2.4, -0.0, -0.88, -2.51, -3.45, -4.12, -3.2, -2.8, -1.84, -0.88, -0.0, 1.72, 0.95, -0.0, -0.83, -0.54, -0.0, -0.0, -0.0, -0.0, -0.0, 0.71, -0.0, -0.71, -1.58, -1.86, -1.86, -1.2, -1.2, -0.0, -0.0, -0.0, -0.0, -0.0, -0.0, -0.0, -0.0, 1.8, 1.8, 2.21, 2.84, 3.58, 2.68, 2.68, -0.0, -0.0, 1.2, 2.21, 2.23, 2.98, 2.98, 3.22, 3.79, -0.0, 0.0, 1.2, 1.2, 2.21, 2.21, 3.35, 3.16, 2.95, 3.35, 4.54, 4.57, 2.97, 0.89, -0.0, -0.0, -0.0, -0.0, -0.0, -0.0, -0.0, -0.0, 0.76, 2.41, 2.49, 2.47, 0.84, -0.0, -2.0, -2.21, -3.13, -3.39, -4.02, -4.92, -5.31, -5.94, -4.98, -3.83, -4.82, -5.36, -4.92, -3.58, -4.02, -4.57, -3.16, -1.83, -0.89, -1.75, -3.32, -3.63, -3.6, -2.82, -1.72, -0.96, -0.0, 0.96, 2.64, 1.73, -0.0, -0.83, -0.54, -0.65, -0.65, -0.0, -0.0, -0.0, 0.54, 0.54, -0.0, -0.54, -1.24, -1.26, -1.58, -1.58, -0.0, -0.0, -0.0, -0.99, -1.13, -0.87, -0.98, -0.0, -0.0, -0.0, 2.2, 2.2, 2.2, 2.0, -0.0, -0.0, 1.58, 2.24, 2.4, 2.21, 2.41, 2.53, 3.63, 3.35, 0.99, 1.34, 1.34, 2.68, 2.24, 2.68, 2.97, 2.98, 3.16, 3.48, 4.57, 4.47, 2.68, -0.0, -1.2, -1.6, -0.0, 0.79, -0.0, -0.83, -1.54, -0.76, 0.76, 2.41, 2.41, 2.41, 1.62, -0.0, -1.83, -2.84, -2.98, -2.8, -2.97, -3.82, -4.6, -5.6, -5.2, -4.57, -4.47, -4.92, -5.29, -4.38, -4.19, -3.72, -3.33, -2.51, -3.27, -4.12, -4.12, -3.4, -2.82, -2.64, -1.63, -0.0, 0.89, 2.64, 2.51, 0.94, -0.0, -0.83, -0.54, -0.65, -0.65, -0.0, -0.0, -0.0, 0.65, 0.53, 0.61, -0.0, -0.0, -0.0, -0.0, -1.79, -2.68, -0.0, -0.0, -1.2, -1.2, -1.2, -0.85, -1.13, -0.0, -0.0, -0.0, -0.0, -0.0, 1.55, 1.55, 2.23, 4.0, 2.8, 2.21, 1.13, 1.8, 2.3, 3.79, 4.74, 1.55, -1.58, 2.68, 2.68, 3.13, 3.2, 4.0, 3.9, 4.47, 4.82, 4.47, 4.66, 2.84, -0.0, -2.21, -1.9, -0.0, 1.26, -0.0, -2.29, -3.21, -1.62, -0.0, 1.54, 1.63, 1.58, 2.41, 0.85, -1.84, -3.58, -3.58, -3.16, -3.35, -3.16, -4.19, -4.54, -4.98, -4.38, -4.02, -4.47, -5.51, -5.58, -4.58, -4.42, -3.77, -3.4, -4.26, -4.56, -4.16, -3.72, -2.64, -2.64, -1.52, -0.0, 1.73, 2.51, 1.73, -0.0, -0.0, -0.83, -1.2, -0.65, -0.65, -0.65, -0.0, -0.0, -0.0, 0.61, 0.59, -0.0, -0.0, -0.0, -0.0, -0.0, -0.0, -0.0, -0.0, -0.0, -0.0, -0.0, -0.0, -1.0, -0.0, -0.0, -0.0, -0.0, -0.0, 2.0, 2.2, 3.48, 2.2, 1.55, 1.55, 1.7, 1.8, 2.41, 3.58, 3.48, 3.22, -0.0, -0.0, -0.0, 2.53, 2.0, 2.98, 4.84, 4.98, 5.09, 4.98, 3.76, 1.83, -0.0, -2.4, -1.79, 0.89, 1.79, -0.0, -3.63, -4.12, -1.75, -0.0, -0.0, -0.0, 1.63, 3.16, 1.68, -0.96, -3.58, -4.15, -4.57, -4.57, -4.6, -4.6, -4.98, -4.82, -4.02, -4.47, -4.57, -5.21, -5.21, -4.19, -4.43, -4.43, -4.43, -4.43, -4.43, -4.81, -4.43, -2.6, -1.84, -0.82, -0.0, 1.73, 1.65, 0.84, -0.0, -0.0, -0.0, -1.2, -1.2, -0.65, -0.65, -0.0, -0.0, -0.0, -0.0, -0.0, -0.0, -0.0, -0.0, -0.0, -0.0, -0.0, -0.0, -0.0, -0.0, -0.0, -0.0, -0.0, -0.0, -1.4, -0.0, -0.0, -0.0, -0.0, 1.8, 2.0, 2.0, -0.0, -0.0, -0.0, 1.55, 2.0, 2.84, 3.16, 3.48, 2.98, 1.55, -0.0, -0.0, -0.0, 2.0, 3.48, 3.58, 4.8, 5.01, 4.95, 4.68, 2.82, -0.0, -2.24, -1.26, 0.0, 1.2, -0.89, -4.54, -4.03, -1.58, -0.81, -0.82, -0.0, 0.79, 3.39, 2.35, -0.88, -4.0, -4.38, -5.29, -5.75, -5.31, -5.29, -4.47, -4.02, -4.38, -4.6, -4.58, -4.26, -3.0, -2.76, -3.84, -3.84, -3.84, -3.84, -4.46, -4.46, -4.54, -3.07, -1.7, -0.0, -0.0, -0.0, 0.84, 0.84, -0.0, -0.0, -0.0, -1.88, -1.2, -1.2, -0.65, -0.53, -0.0, -0.0, -0.0, -0.0, -0.0, -0.0, -0.0, -0.0, -0.0, -0.0, -0.0, -0.0, -0.0, -0.0, -0.0, -0.0, -0.0, -0.0, -0.0, -0.0, -0.0, -0.0, -0.0, 1.8, 1.8, -0.0, -0.0, -0.0, 2.0, 3.48, 3.79, 3.48, 1.98, 2.98, 2.98, 0.98, 1.13, 0.99, 2.21, 2.21, 2.98, 3.58, 4.54, 4.95, 4.96, 3.32, 0.79, -0.99, -1.0, 0.0, 0.99, -0.95, -4.22, -3.09, -2.41, -1.64, -1.64, -0.0, 0.82, 2.49, 1.67, -1.8, -4.02, -4.41, -5.29, -6.26, -5.36, -4.47, -4.02, -3.95, -4.22, -4.16, -4.2, -2.89, -1.47, -0.0, -0.0, -2.6, -2.6, -2.97, -3.47, -3.6, -3.22, -2.68, -1.55, -0.72, -0.0, -0.0, -0.0, -0.0, -0.0, -0.0, -0.0, -2.21, -1.88, -1.2, -1.2, -0.53, -0.61, -0.61, -0.0, -0.0, -0.0, -0.0, -0.0, -0.0, -0.0, -0.0, -0.0, -0.0, -0.0, -0.0, -0.0, -0.0, -0.0, -0.0, -0.0, -0.0, -0.0, -0.0, -0.0, -0.0, 1.8, -0.0, -0.0, -0.0, 1.2, 2.8, 4.66, 3.79, 2.98, 2.68, 3.48, 2.68, 1.98, 2.21, 3.2, 3.2, 2.98, 3.58, 4.54, 4.29, 3.45, 2.41, 1.58, -0.0, -0.0, 2.68, 3.13, -0.0, -2.41, -3.21, -3.14, -3.14, -2.45, -0.8, -0.0, 0.82, 0.77, -2.23, -4.82, -5.36, -5.81, -5.81, -4.85, -4.38, -4.02, -3.95, -4.19, -5.3, -5.06, -3.36, -0.81, 0.73, 1.55, 1.47, -0.0, -1.34, -1.34, -1.79, -2.0, -1.98, -2.53, -2.11, -1.72, -0.89, -0.95, -0.0, -0.0, -0.0, -0.0, -2.53, -2.21, -1.88, -1.88, -1.16, -1.16, -0.61, -0.61, -0.0, -0.0, -0.0, -0.0, -0.0, -0.0, -0.0, -0.0, -0.0, -0.0, -0.0, 0.54, 0.54, 0.71, 0.71, 1.6, -0.0, -0.0, -0.0, 0.71, 1.4, 1.6, -0.0, -0.0, -0.0, 1.58, 2.97, 3.35, 3.16, 2.95, 2.68, 3.93, 3.93, 3.6, 3.39, 3.2, 2.53, 1.98, 1.7, 3.0, 1.32, -0.0, 0.8, 0.83, 0.81, 2.44, 4.03, 2.47, 0.79, -0.0, -3.36, -3.96, -3.25, -1.6, -0.82, -0.0, -0.0, -0.0, -0.84, -3.39, -4.98, -5.75, -5.31, -4.41, -3.95, -4.47, -4.47, -5.2, -5.69, -5.89, -3.69, -1.45, 0.89, 1.84, 2.67, 2.0, 1.74, 1.26, 0.45, -1.34, -1.0, -2.41, -3.07, -2.98, -2.29, -1.72, -0.82, -0.0, -0.0, -0.0, -2.53, -2.53, -1.88, -1.61, -1.61, -1.61, -1.16, -0.61, -0.0, -0.0, -0.0, -0.0, -0.0, -0.0, -0.0, -0.0, 0.51, 0.61, 0.65, 0.54, 0.71, 0.71, 1.24, 1.24, 1.58, 1.58, 1.58, 1.58, 2.23, 1.86, 2.8, 2.4, 1.58, 2.24, 2.4, 2.98, 2.84, 3.16, 2.84, 4.0, 4.15, 4.38, 3.9, 2.97, 1.6, -0.0, -0.0, -0.0, -0.0, -0.0, -0.0, -0.0, -0.0, 2.19, 3.53, 1.16, 1.13, 2.28, -1.65, -5.0, -3.14, -0.8, -0.0, -0.0, -1.58, -1.62, -0.74, -0.0, -0.0, -3.39, -4.98, -4.54, -4.4, -4.57, -4.92, -4.6, -3.4, -4.26, -3.0, -1.6, -0.0, 0.89, 1.52, 1.84, 3.55, 2.8, 1.13, -0.0, -0.0, -0.76, -2.15, -3.07, -3.22, -2.6, -1.7, -0.88, -0.0, -0.0, -2.21, -2.53, -2.23, -1.84, -1.84, -1.84, -1.84, -1.16, -0.61, -0.0, -0.0, 0.59, 0.59, -0.0, -0.0, -0.0, 0.59, 0.59, 1.13, 1.16, 1.0, 1.2, 1.24, 1.58, 1.86, 1.86, 1.86, 2.12, 2.12, 2.12, 2.17, 2.97, 3.13, 2.24, 2.4, 2.21, 2.98, 2.98, 3.39, 3.9, 4.47, 4.02, 4.47, 3.2, -0.0, -0.0, -0.88, -0.0, -0.0, -0.0, -0.0, -0.0, -0.0, 1.18, 1.05, -0.0, 3.53, 5.64, -0.0, -5.41, -3.14, -0.0, -0.0, -0.0, -2.37, -2.35, -1.51, -0.0, 2.2, 3.49, 1.8, -2.8, -3.48, -4.0, -2.98, -0.83, -0.0, -0.0, -0.83, -1.84, -0.88, -0.0, 0.88, 0.73, 2.51, 3.6, 2.82, 1.05, 0.88, -0.0, -0.0, -1.66, -2.2, -2.76, -2.3, -0.96, -0.0, -0.0, -1.24, -1.88, -2.53, -1.84, -1.84, -1.84, -1.84, -1.84, -1.16, -0.61, -0.0, -0.0, 0.59, 0.59, -0.0, -0.0, -0.0, 0.57, 1.11, 1.27, 1.13, 1.84, 1.88, 1.9, 1.86, 2.12, 2.12, 1.7, 1.7, 2.12, 2.24, 2.24, 3.58, 3.13, 2.21, 2.53, 3.6, 3.39, 4.47, 4.02, 4.47, 5.36, 4.47, 3.58, -0.0, -0.0, -0.0, -1.41, -1.41, -0.0, -0.0, -0.0, -0.0, -0.0, -0.0, -0.0, 3.6, 4.5, -0.0, -5.4, -3.19, -1.18, -0.0, -1.11, -2.16, -2.24, -1.15, -0.0, 3.41, 4.98, 5.6, 5.52, 4.74, 2.8, 3.21, 3.19, 3.42, 2.47, 0.83, -0.0, -0.0, -0.0, 0.88, -0.0, -0.0, 2.47, 3.4, 2.51, 1.41, 0.96, -0.0, -0.0, -0.81, -0.81, -0.96, -0.0, -0.0, -0.0, -0.0, -1.24, -1.88, -1.84, -1.84, -1.6, -1.6, -1.84, -1.61, -1.16, -0.53, -0.0, 0.51, 0.59, 0.59, -0.0, -0.0, 0.57, 1.11, 1.27, 1.13, 1.13, 1.6, 2.53, 2.15, 2.12, 1.79, 1.79, 1.79, 1.79, 2.24, 2.24, 2.68, 3.58, 3.2, 2.4, 2.97, 2.97, 4.02, 4.47, 4.47, 4.47, 4.47, 4.02, 3.13, -0.0, -0.0, -1.41, -1.27, -1.27, -0.0, -0.0, 1.19, -0.0, -0.0, -0.0, 1.1, -0.0, -1.07, -2.23, -2.35, -2.46, -2.33, -1.11, -1.11, -2.39, -1.6, -0.0, 2.52, 2.45, 4.1, 7.38, 10.05, 9.25, 7.93, 7.11, 5.6, 3.45, 1.84, 0.96, 0.96, 0.96, -0.0, -0.0, -1.08, -0.0, 1.72, 2.51, 1.73, 1.72, 0.82, -0.0, -0.0, -0.0, -0.0, -0.0, 0.78, 0.78, 0.8, -0.0, -0.71, -1.2, -1.61, -1.84, -1.13, -1.84, -1.84, -1.61, -1.2, -0.0, -0.0, 0.61, 0.51, -0.0, -0.0, 0.57, 0.59, 1.13, 1.16, 1.13, 1.8, 2.51, 2.5, 2.12, 1.79, 1.34, 1.34, 1.34, 1.79, 2.24, 2.24, 4.02, 2.54, 2.54, 3.13, 4.02, 4.02, 4.02, 4.47, 3.58, 4.47, 3.58, 3.58, 1.6, -0.0, -0.0, -0.0, -0.0, -0.0, -0.0, 1.55, 1.14, -0.0, -0.0, -0.0, -0.0, -0.0, -1.07, -1.14, -1.18, -1.23, -1.23, -1.18, -1.65, -2.58, -2.39, -1.18, -0.0, 4.9, 8.09, 11.47, 10.83, 9.54, 9.54, 8.31, 5.52, 2.51, 1.63, 1.73, 0.83, -0.0, -0.0, -0.0, -0.0, 0.88, 1.73, 1.73, 1.84, 1.7, -0.0, -0.0, 0.79, 1.65, 1.55, 2.26, 2.26, 1.86, 1.58, 0.57, -0.0, -1.2, -1.16, -1.13, -1.13, -1.33, -1.16, -1.4, -0.65, -0.0, -0.0, -0.0, -0.0, -0.0, 0.59, 0.59, 0.61, 0.53, 0.59, 1.11, 2.23, 2.21, 1.6, 1.34, 1.34, 1.34, 1.34, 1.34, 1.79, 2.24, 2.68, 2.24, 3.13, 3.13, 4.02, 4.02, 4.47, 4.02, 4.02, 4.47, 4.24, 3.16, 2.0, 1.41, 1.8, 2.0, 1.8, 1.8, 1.8, 1.55, 1.41, 1.23, -0.0, -0.0, -0.0, -0.0, -0.0, -1.25, -1.18, -0.0, -1.18, -1.07, -2.4, -4.96, -6.3, -4.14, -0.0, 6.3, 10.29, 12.51, 11.87, 10.43, 9.6, 8.84, 6.52, 4.75, 2.41, 1.62, 0.85, -0.0, -0.0, -0.0, 0.84, 1.67, 2.54, 2.54, 3.45, 3.4, 1.72, 0.78, 1.49, 2.54, 2.54, 2.9, 2.9, 2.12, 2.0, 1.86, 1.24, -0.0, -0.65, -0.61, -0.61, -0.51, -1.16, -1.16, -1.2, -0.65, -0.0, -0.0, -0.0, -0.0, -0.0, 0.51, 0.61, -0.0, -0.0, 0.59, 2.0, 1.8, 1.8, 1.24, 2.21, 2.21, 1.7, 1.79, 2.24, 2.24, 2.68, 2.68, 2.68, 2.68, 3.13, 4.47, 5.36, 4.38, 4.82, 5.2, 5.2, 4.11, 4.11, 3.79, 2.73, 2.73, 2.73, 2.73, 2.98, 1.3, 1.23, 1.32, 1.18, 1.32, 1.32, -0.0, -0.0, -0.0, -0.0, -1.14, -1.65, -0.78, -3.2, -5.38, -6.01, -4.6, -0.0, 6.8, 10.55, 13.75, 13.19, 10.66, 7.97, 5.29, 4.75, 4.87, 4.71, 1.75, 0.84, -0.0, 0.76, 0.8, 1.67, 2.57, 3.7, 3.49, 3.88, 4.71, 4.2, 2.54, 2.31, 3.32, 3.45, 3.4, 3.4, 2.6, 2.4, 2.4, 2.4, 1.9, 0.54, -0.0, -0.0, -0.0, -0.0, -0.61, -1.16, -0.65, -0.65, -0.0, -0.0, -0.0, -0.0, -0.0, -0.0, -0.0, 0.59, 0.59, 2.0, 2.68, 2.68, 3.48, 2.84, 3.14, 3.07, 2.91, 2.68, 2.68, 3.13, 3.13, 3.13, 3.58, 4.02, 4.47, 4.89, 5.24, 5.57, 5.99, 5.88, 5.6, 6.64, 5.6, 5.01, 4.11, 3.79, 2.98, 2.98, 2.6, 2.32, 2.47, 2.35, 2.4, 1.6, 1.47, 1.25, -0.0, -0.0, -1.25, -1.18, -0.0, -2.2, -4.0, -4.03, -2.68, -0.0, 5.73, 10.25, 13.32, 12.74, 9.06, 4.89, 1.05, 0.89, 4.01, 4.13, 2.57, 1.75, 1.65, 1.75, 2.54, 2.31, 2.9, 4.5, 4.5, 4.5, 4.92, 5.14, 4.4, 3.32, 3.8, 4.96, 5.1, 5.1, 2.6, 3.07, 2.91, 2.91, 2.91, 2.15, 1.0, -0.0, -0.0, -0.0, -0.0, -0.0, -0.53, -0.65, -0.65, -0.0, -0.0, -0.0, -0.0, -0.0, 0.87, 1.16, 1.33, 1.84, 2.53, 3.16, 3.78, 4.0, 4.0, 4.27, 3.6, 3.39, 3.53, 3.53, 3.53, 3.58, 3.58, 4.02, 4.47, 4.92, 5.78, 6.16, 6.51, 6.94, 6.79, 7.74, 6.64, 6.23, 5.6, 4.11, 2.98, 3.22, 2.6, 2.8, 2.49, 2.64, 2.67, 2.47, 2.32, 2.54, 1.2, -0.0, -1.25, -0.0, 0.79, -0.79, -2.47, -1.67, -0.0, 1.7, 5.82, 9.24, 9.39, 5.75, 1.58, -1.2, -0.76, -0.0, 1.73, 2.57, 3.21, 2.47, 2.47, 2.83, 3.21, 3.36, 4.07, 4.6, 5.62, 5.28, 4.71, 5.76, 5.76, 5.04, 5.13, 5.94, 5.69, 5.69, 3.07, 3.07, 3.39, 3.39, 3.39, 3.39, 2.68, 1.49, 0.54, -0.0, -0.0, -0.0, -0.0, -0.0, -0.65, -0.65, -0.65, -0.65, -0.0, -0.0, 0.65, 1.16, 1.61, 1.84, 2.51, 3.16, 3.78, 4.0, 4.0, 4.0, 4.27, 4.11, 3.7, 3.87, 3.87, 3.87, 3.98, 4.44, 4.44, 4.89, 5.33, 5.7, 6.04, 6.51, 6.79, 6.3, 7.21, 6.23, 5.2, 4.84, 4.11, 3.49, 3.76, 3.76, 3.76, 2.66, 3.27, 3.2, 2.32, 2.54, 2.57, 0.8, -0.0, 0.76, 1.66, -0.0, -1.63, -0.82, -0.0, 1.18, 4.9, 7.19, 2.8, -4.02, -4.0, -2.6, -1.9, -0.76, -0.0, -0.0, 0.81, 2.25, 3.32, 3.23, 3.96, 4.93, 4.75, 5.06, 6.09, 5.7, 5.18, 5.7, 6.87, 6.88, 6.24, 6.32, 6.01, 6.01, 3.09, 3.09, 3.53, 3.87, 3.87, 3.87, 3.87, 3.39, 1.9, 0.54, -0.0, -0.0, -0.0, -0.0, -0.0, -0.65, -0.65, -0.65, -0.0, -0.0, -0.0, 0.65, 1.16, 1.84, 2.51, 2.84, 2.86, 3.48, 3.73, 4.37, 4.37, 4.27, 3.88, 4.11, 4.11, 4.3, 4.3, 4.34, 4.77, 4.77, 5.24, 5.24, 5.57, 5.99, 5.81, 5.81, 7.21, 6.58, 5.64, 4.46, 4.11, 3.76, 4.43, 5.01, 3.76, 2.66, 3.27, 3.09, 2.8, 1.73, 1.67, 1.67, 1.72, 2.41, 0.74, -0.78, -1.6, -0.79, -0.0, -0.0, -0.0, 4.58, 4.29, -1.8, -2.73, -1.74, -1.9, -1.74, -1.8, -1.6, -0.73, -0.0, 1.61, 3.17, 4.87, 5.55, 5.67, 6.21, 7.12, 8.12, 6.51, 6.51, 7.59, 7.31, 6.32, 6.01, 5.69, 5.69, 3.53, 3.53, 3.53, 3.87, 4.3, 4.3, 4.34, 4.34, 3.82, 1.9, 0.65, 0.65, 0.53, 0.61, -0.0, -0.0, -0.53, -0.65, -0.0, -0.0, -0.0, 0.65, 0.65, 1.16, 1.84, 2.51, 3.16, 3.43, 3.48, 4.37, 4.55, 4.55, 4.4, 4.27, 4.52, 4.11, 4.19, 4.19, 4.6, 4.6, 4.77, 5.24, 5.24, 5.24, 5.7, 5.24, 7.06, 6.58, 5.81, 5.36, 5.36, 5.36, 5.36, 5.01, 4.02, 3.68, 2.51, 3.27, 2.49, 2.4, 1.67, 1.58, 2.53, 1.66, -0.75, -1.53, -0.81, -0.0, -0.0, -0.85, -0.0, 9.48, 12.26, 7.35, 1.41, -0.0, -2.84, -3.6, -3.16, -2.4, -1.52, -0.73, 0.73, 2.93, 4.81, 5.6, 6.56, 7.24, 7.24, 8.42, 7.48, 7.31, 7.33, 6.68, 5.69, 5.3, 5.3, 5.3, 3.98, 3.98, 3.98, 3.87, 4.3, 4.34, 4.34, 4.77, 4.77, 3.6, 1.9, 0.65, 0.65, 0.65, 0.53, -0.0, -0.0, -0.53, -0.0, -0.0, -0.0, 0.65, 0.65, 1.2, 1.88, 2.23, 2.51, 2.84, 3.43, 4.0, 4.37, 4.55, 4.55, 4.55, 4.4, 4.4, 4.4, 4.6, 4.6, 4.6, 4.77, 4.77, 4.89, 5.33, 5.33, 5.36, 5.36, 5.78, 5.99, 5.81, 5.6, 6.8, 5.75, 5.36, 4.74, 3.68, 2.4, 1.63, 2.4, 2.21, 2.28, 2.54, 1.66, -0.0, -2.34, -2.41, -0.83, -0.0, -0.0, -0.0, 1.52, 5.89, 12.33, 11.19, 5.64, -0.0, -3.13, -3.13, -4.0, -2.6, -2.23, -0.73, 0.71, 2.88, 4.87, 5.86, 6.57, 6.57, 7.48, 7.15, 8.12, 7.31, 6.7, 5.77, 4.65, 4.29, 4.56, 4.56, 3.98, 3.98, 4.43, 4.43, 4.34, 4.34, 4.77, 4.88, 4.89, 4.77, 3.6, 1.88, 1.2, 1.2, 1.2, -0.0, -0.0, -0.0, -0.0, -0.0, -0.0, -0.0, 0.65, 1.2, 1.4, 1.88, 2.53, 2.84, 2.84, 3.43, 4.0, 4.37, 4.55, 4.55, 4.55, 4.55, 4.8, 4.8, 4.6, 4.6, 4.77, 4.77, 4.89, 5.36, 5.36, 5.36, 5.36, 5.78, 6.04, 6.3, 6.1, 5.81, 6.52, 6.13, 5.37, 4.75, 2.4, 1.18, 1.07, 2.33, 3.52, 4.71, 1.66, -1.63, -3.95, -2.45, -0.83, -0.85, -0.81, -0.0, 0.83, 3.8, 7.01, 12.19, 10.98, 2.82, -3.47, -3.47, -3.35, -2.64, -1.6, -0.0, 0.73, 2.15, 4.4, 5.86, 6.0, 5.9, 5.64, 5.78, 6.57, 7.59, 6.01, 4.65, 4.16, 4.42, 4.56, 4.56, 4.44, 4.44, 4.44, 4.44, 4.34, 4.77, 4.77, 4.88, 4.89, 5.33, 4.77, 3.2, 1.88, 1.61, 1.4, 0.53, -0.0, -0.0, -0.0, -0.0, -0.0, -0.0, -0.0, 0.65, 1.2, 1.88, 2.53, 2.53, 3.14, 2.84, 3.43, 3.72, 4.0, 4.37, 4.55, 4.55, 4.93, 5.08, 5.31, 4.8, 5.02, 5.24, 5.24, 5.36, 4.92, 4.92, 5.33, 5.7, 6.04, 6.3, 6.3, 5.81, 5.6, 5.21, 5.77, 4.95, 3.4, 2.26, 1.63, 2.4, 4.44, 4.71, 1.32, -1.55, -4.4, -2.49, -1.52, -0.84, -0.8, -0.0, -0.0, 0.83, 3.21, 7.82, 12.07, 10.59, 4.74, -2.0, -3.39, -1.72, -0.85, -0.0, 0.72, 1.47, 2.97, 4.4, 5.52, 5.9, 4.83, 4.2, 4.5, 6.79, 6.42, 5.1, 4.56, 4.56, 4.56, 4.56, 4.89, 4.89, 4.88, 4.88, 4.77, 4.89, 4.89, 4.89, 4.89, 5.33, 5.33, 4.34, 3.07, 2.21, 1.61, 1.16, 0.61, -0.0, -0.0, -0.0, -0.0, -0.0, -0.0, 0.65, 1.2, 1.4, 1.88, 2.53, 2.23, 2.23, 3.14, 3.14, 3.72, 4.27, 4.0, 4.55, 4.55, 4.93, 5.08, 5.31, 4.9, 5.09, 5.09, 5.31, 5.31, 5.4, 5.99, 5.7, 5.99, 5.99, 5.81, 6.0, 5.75, 5.49, 5.01, 4.95, 3.4, 3.4, 2.4, 3.27, 4.71, 4.6, 1.65, -0.74, -2.26, -3.39, -0.0, -0.79, -0.83, -0.0, 0.83, 0.82, 1.6, 4.12, 7.9, 13.74, 14.86, 10.0, 4.54, 0.88, -0.0, -0.0, 0.58, 0.71, 2.35, 3.0, 3.69, 4.34, 4.2, 3.49, 4.2, 5.64, 7.78, 6.58, 5.49, 5.3, 5.37, 5.37, 5.33, 5.33, 4.89, 4.89, 4.89, 4.89, 5.33, 5.33, 5.33, 4.89, 5.33, 5.33, 4.3, 3.07, 1.88, 1.6, 1.13, 0.59, 0.59, 0.59, 0.51, 0.61, 0.61, 0.53, 0.65, 1.16, 1.61, 1.84, 2.23, 2.23, 2.79, 3.14, 3.35, 3.72, 3.88, 4.27, 4.55, 4.55, 5.08, 5.08, 5.08, 5.08, 4.55, 5.21, 5.82, 5.37, 5.81, 5.57, 5.31, 5.4, 5.6, 5.75, 5.86, 5.86, 5.35, 4.75, 4.71, 3.35, 3.15, 3.15, 4.0, 3.32, 1.58, -0.0, -2.26, -2.37, -0.0, -0.0, -0.96, -0.76, 0.83, 1.63, 2.4, 3.63, 6.82, 11.09, 14.07, 14.51, 10.58, 5.1, 0.83, -0.0, -0.0, 0.59, 0.88, 0.81, 1.47, 2.67, 3.32, 3.49, 4.34, 5.21, 6.95, 7.59, 6.58, 6.68, 6.01, 6.01, 5.34, 5.34, 5.33, 5.33, 5.33, 5.33, 5.33, 5.33, 5.33, 5.33, 5.36, 5.81, 5.33, 3.87, 2.21, 1.84, 1.13, 1.11, 0.57, 0.57, 0.66, 1.13, 1.27, 1.13, 1.33, 1.33, 1.61, 1.84, 1.84, 2.53, 2.53, 2.79, 3.14, 3.35, 3.72, 3.88, 4.27, 4.8, 4.55, 4.93, 5.08, 4.93, 4.93, 4.55, 4.93, 6.21, 6.8, 5.47, 5.21, 5.58, 5.49, 5.86, 5.86, 6.23, 5.59, 4.47, 4.08, 4.05, 4.2, 4.0, 4.0, 3.06, 2.31, 0.83, -4.5, -3.85, -0.8, 1.18, -0.0, -1.83, -0.0, 2.4, 4.83, 6.01, 7.85, 8.9, 9.9, 10.63, 11.47, 8.46, 1.65, -0.59, -0.0, -0.0, -0.0, 0.81, 0.76, 2.2, 3.2, 4.22, 4.56, 6.01, 6.68, 7.97, 7.96, 7.31, 7.33, 7.33, 5.78, 5.78, 5.34, 5.33, 5.33, 5.33, 5.33, 5.34, 5.34, 5.34, 5.36, 5.36, 5.81, 5.33, 3.39, 1.88, 1.33, 1.13, 1.11, 1.11, 1.11, 1.76, 1.8, 1.8, 1.8, 1.84, 1.84, 1.84, 1.84, 1.88, 2.53, 2.53, 3.14, 3.14, 3.35, 3.72, 3.88, 4.27, 4.8, 4.55, 4.55, 4.93, 4.55, 4.55, 4.8, 5.75, 6.7, 5.75, 5.75, 6.13, 6.28, 6.28, 6.28, 5.86, 5.35, 4.75, 4.47, 4.05, 4.03, 3.88, 3.21, 3.21, 3.27, -1.63, -3.91, -4.83, -3.21, -0.0, 1.2, -0.0, -0.82, 0.78, 4.12, 8.22, 9.05, 7.76, 6.82, 7.06, 8.93, 8.85, 2.99, -0.81, -0.66, -0.0, 0.66, 1.35, 2.6, 3.9, 5.06, 5.77, 5.72, 6.44, 7.28, 8.24, 7.95, 7.95, 8.3, 8.3, 5.78, 5.78, 5.78, 5.34, 5.33, 5.33, 5.34, 5.78, 5.78, 5.78, 5.81, 5.81, 5.81, 5.81, 4.89, 3.07, 1.16, 1.13, 1.11, 1.76, 1.76, 2.22, 2.22, 2.48, 2.48, 2.23, 1.8, 1.6, 2.0, 1.88, 1.88, 2.53, 3.14, 3.35, 3.35, 3.6, 4.11, 3.88, 4.27, 4.55, 4.55, 4.55, 4.8, 4.8, 5.02, 5.24, 5.99, 6.3, 6.1, 6.1, 6.1, 6.1, 6.51, 6.1, 5.21, 4.45, 4.75, 4.73, 4.05, 4.0, 3.95, 3.88, 1.52, -0.72, -3.2, -4.83, -4.83, -2.4, 1.14, 1.18, -0.0, -0.0, 2.32, 7.27, 10.51, 9.62, 6.73, 6.73, 7.41, 6.01, 1.6, -0.79, -0.0, 0.66, 1.94, 3.76, 4.75, 6.28, 7.44, 7.2, 7.47, 7.28, 7.71, 8.4, 8.8, 8.8, 8.8, 8.8, 5.81, 5.81, 5.78, 5.78, 5.34, 5.34, 5.78, 5.78, 5.78, 5.78, 5.81, 5.81, 6.26, 6.26, 6.26, 4.34, 2.53, 2.23, 1.58, 1.76, 2.22, 2.44, 2.44, 2.22, 2.22, 2.48, 2.23, 2.23, 2.07, 2.68, 1.84, 2.53, 3.14, 3.35, 3.35, 4.0, 4.11, 4.11, 4.27, 4.27, 4.4, 4.8, 5.02, 5.09, 5.09, 5.09, 5.57, 5.99, 6.3, 6.3, 6.3, 6.3, 6.51, 6.51, 5.75, 4.74, 4.45, 4.47, 4.46, 4.24, 3.97, 2.44, 2.09, -0.0, -2.35, -3.09, -4.03, -3.33, -0.0, 2.12, 1.6, -0.0, 0.98, 4.95, 10.12, 12.16, 8.93, 6.73, 5.43, 1.8, -0.87, -0.0, 0.81, 2.47, 4.12, 5.37, 7.15, 7.72, 8.8, 8.3, 8.14, 7.45, 7.56, 8.01, 8.38, 9.24, 8.91, 8.91, 5.81, 5.81, 5.78, 5.78, 5.78, 5.78, 5.78, 5.78, 5.78, 5.79, 5.79, 6.26, 6.26, 6.26, 6.71, 5.78, 5.7, 3.72, 2.22, 1.76, 2.44, 2.44, 2.86, 2.86, 2.86, 3.15, 2.86, 2.23, 2.23, 2.23, 2.23, 2.53, 2.79, 3.35, 3.72, 3.88, 4.11, 4.11, 4.11, 4.52, 4.6, 5.02, 5.09, 5.09, 5.09, 5.09, 5.51, 5.57, 5.99, 5.99, 5.81, 6.3, 6.51, 6.28, 5.86, 5.01, 4.45, 4.75, 4.73, 4.03, 3.21, 2.13, 2.06, -0.0, -1.52, -3.4, -3.09, -2.51, -1.1, 1.1, 1.52, 1.3, 1.41, 2.6, 7.48, 11.47, 10.81, 7.9, 3.72, -0.0, -1.9, -0.0, 1.52, 3.69, 5.64, 6.62, 7.44, 7.9, 8.24, 8.3, 7.89, 7.55, 6.71, 7.15, 7.6, 8.67, 8.67, 8.67, 5.81, 5.81, 5.81, 5.78, 5.78, 5.78, 5.78, 5.78, 5.78, 6.23, 6.23, 6.26, 6.26, 6.71, 6.71, 7.15, 6.23, 5.02, 2.86, 2.44, 2.44, 2.86, 2.86, 2.86, 2.86, 3.15, 3.15, 2.86, 2.23, 2.51, 2.23, 2.53, 2.53, 3.14, 3.35, 3.72, 3.88, 3.88, 4.11, 4.6, 4.6, 4.6, 5.02, 5.02, 5.02, 5.09, 5.09, 5.09, 5.51, 5.51, 5.99, 6.3, 6.51, 6.28, 5.59, 5.35, 5.06, 5.06, 4.73, 3.49, 2.9, 3.34, 2.28, -0.0, -0.0, -2.26, -2.51, -2.4, -0.83, 0.78, 1.52, 2.26, 2.32, 3.22, 5.1, 8.3, 10.43, 10.54, 6.42, 2.23, -0.0, 1.41, 3.2, 5.21, 6.32, 7.21, 7.51, 8.05, 8.0, 7.35, 6.94, 6.65, 5.81, 5.77, 6.21, 6.71, 8.46, 8.46, 6.26, 6.26, 5.81, 5.78, 5.78, 5.78, 5.78, 5.78, 6.23, 6.23, 6.23, 6.23, 6.26, 6.71, 6.71, 7.15, 6.68, 5.51, 3.78, 2.86, 2.86, 2.86, 2.86, 2.86, 2.86, 3.48, 3.48, 2.86, 3.16, 2.51, 2.23, 2.53, 2.53, 2.79, 3.35, 3.72, 3.88, 4.11, 4.6, 4.6, 4.77, 4.6, 4.6, 4.6, 4.6, 4.77, 4.77, 4.77, 5.24, 5.09, 5.57, 6.23, 6.1, 5.86, 5.93, 5.93, 5.65, 5.08, 4.73, 3.49, 2.9, 2.33, 2.13, 0.8, -0.0, -1.23, -2.47, -2.51, -0.89, -0.0, 1.1, 1.73, 3.4, 3.47, 2.64, 4.25, 7.23, 10.47, 11.59, 8.57, 5.37, 4.65, 5.3, 5.64, 7.02, 7.33, 7.44, 6.82, 6.8, 5.82, 5.2, 4.57, 4.47, 4.47, 4.85, 5.31, 7.15, 7.15, 6.26, 6.26, 6.26, 6.26, 5.79, 5.79, 5.79, 5.79, 6.23, 6.23, 6.23, 6.68, 6.71, 6.71, 6.71, 7.15, 7.15, 5.7, 4.0, 2.86, 2.86, 3.12, 2.86, 2.86, 3.48, 3.48, 3.48, 3.43, 3.16, 2.84, 2.51, 2.53, 2.53, 2.53, 3.07, 3.6, 4.11, 4.52, 4.6, 4.77, 4.77, 4.19, 4.6, 5.51, 4.6, 4.34, 4.44, 4.44, 4.77, 5.09, 5.4, 6.0, 6.13, 5.86, 5.93, 5.98, 5.98, 5.38, 4.03, 3.49, 2.9, 2.33, 2.13, 1.52, 0.79, -0.0, -1.6, -1.55, -0.79, -0.0, 0.83, 2.4, 4.71, 3.6, 0.82, -0.0, 4.2, 8.95, 12.78, 12.4, 9.17, 6.51, 5.86, 5.94, 6.35, 6.35, 6.07, 5.82, 4.54, 3.48, 2.68, 2.23, 2.21, 2.68, 3.58, 4.02, 4.47, 5.81, 6.26, 6.26, 6.26, 6.26, 6.26, 6.23, 6.23, 6.23, 6.26, 6.26, 6.23, 6.71, 6.71, 6.71, 7.15, 7.15, 7.6, 6.23, 4.8, 3.48, 3.49, 3.49, 3.2, 3.48, 3.48, 3.48, 3.78, 3.43, 3.43, 2.84, 2.84, 2.23, 2.53, 2.5, 2.68, 3.2, 3.7, 4.34, 4.77, 4.77, 4.34, 4.3, 4.11, 5.09, 4.6, 4.77, 4.43, 4.34, 4.6, 5.31, 5.6, 5.75, 6.28, 6.03, 6.15, 6.23, 6.01, 5.71, 4.03, 3.49, 2.9, 2.33, 2.1, 1.67, 0.79, -0.0, -0.0, -0.79, -0.0, -0.0, 0.8, 1.11, 3.52, 4.6, 2.47, -0.0, 2.0, 7.15, 10.19, 11.44, 10.07, 8.09, 6.44, 5.21, 4.74, 4.81, 4.19, 3.16, 2.0, 0.98, -0.0, -0.0, -0.0, -0.0, 1.58, 2.24, 3.13, 4.47, 6.26, 6.26, 6.26, 6.26, 6.26, 6.26, 6.26, 6.26, 6.26, 6.26, 6.71, 6.71, 6.71, 7.15, 7.15, 7.15, 7.6, 7.6, 5.09, 4.07, 3.49, 3.49, 3.49, 3.48, 3.48, 3.78, 4.0, 3.43, 3.43, 2.84, 2.84, 2.84, 2.53, 2.5, 2.68, 3.32, 3.82, 4.3, 4.34, 4.77, 4.77, 4.34, 4.3, 4.3, 5.51, 4.6, 4.19, 4.52, 4.8, 5.47, 5.75, 6.13, 6.03, 6.41, 6.23, 5.95, 5.71, 4.69, 4.24, 3.32, 2.93, 2.23, 1.75, 1.04, 1.14, 1.1, -0.0, -0.0, -0.0, 0.81, 0.81, 0.81, 2.33, 4.4, 4.96, 2.95, 2.95, 5.37, 8.22, 9.43, 9.76, 8.44, 5.7, 3.79, 2.3, 2.53, 1.6, -0.0, -0.0, -0.88, -0.96, -0.88, -0.98, -0.99, -0.0, -0.0, 1.79, 3.13, 6.26, 6.26, 6.26, 6.26, 6.26, 6.26, 6.26, 6.26, 6.26, 6.71, 6.71, 6.71, 6.71, 7.15, 7.15, 7.6, 7.6, 7.6, 5.57, 4.37, 4.07, 3.79, 3.79, 3.48, 3.48, 4.0, 4.0, 4.27, 3.72, 3.43, 2.84, 2.84, 2.79, 2.79, 2.68, 3.32, 3.39, 3.87, 4.34, 4.77, 4.77, 4.44, 3.98, 3.98, 4.34, 6.02, 4.8, 4.93, 5.21, 5.75, 5.75, 6.13, 5.86, 5.93, 5.98, 6.01, 5.71, 5.09, 4.24, 3.52, 2.93, 2.35, 2.19, 1.09, 2.28, 2.21, 0.76, -0.0, -0.0, 0.78, -0.0, -0.0, 1.14, 3.52, 4.66, 4.66, 4.8, 5.63, 6.7, 8.18, 9.37, 8.73, 4.4, 0.76, -0.0, -0.0, -0.87, -2.0, -1.83, -2.53, -2.53, -2.95, -2.68, -1.98, -1.4, -0.0, -0.0, -0.0, 6.71, 6.71, 6.71, 6.71, 6.71, 6.71, 6.71, 6.71, 6.71, 6.71, 6.71, 6.71, 6.71, 7.15, 7.15, 7.6, 7.6, 8.05, 7.15, 4.8, 4.07, 4.07, 4.07, 3.73, 4.0, 4.0, 4.27, 4.27, 3.88, 3.72, 3.43, 2.84, 3.14, 2.79, 3.07, 3.07, 3.82, 3.87, 4.3, 4.44, 4.88, 4.44, 4.44, 4.44, 4.77, 5.09, 5.47, 5.21, 5.37, 5.75, 5.75, 5.86, 5.86, 5.93, 5.98, 6.01, 5.72, 5.09, 4.69, 3.52, 2.8, 2.35, 1.79, 2.23, 2.13, 2.06, 1.07, -0.0, -0.0, -0.0, -0.0, -0.0, 1.2, 2.44, 3.3, 4.54, 6.31, 6.9, 6.52, 7.36, 8.58, 7.93, 2.83, -0.73, -2.6, -2.84, -2.95, -2.95, -3.48, -3.79, -3.79, -3.79, -3.48, -3.58, -2.21, -1.2, -1.2, -1.2, 6.68, 6.68, 6.71, 6.71, 6.71, 6.71, 6.71, 6.71, 6.71, 6.71, 6.71, 6.71, 6.71, 7.15, 7.15, 7.6, 7.6, 8.05, 7.6, 4.8, 4.37, 4.07, 4.07, 4.37, 4.0, 4.0, 4.27, 4.27, 4.27, 3.88, 3.72, 3.72, 3.14, 3.14, 3.6, 3.6, 3.82, 3.87, 4.43, 4.44, 4.44, 4.44, 4.44, 4.77, 5.24, 5.31, 5.6, 5.6, 5.37, 5.75, 5.75, 5.86, 5.59, 5.65, 5.98, 5.69, 5.72, 5.09, 4.69, 3.52, 2.97, 2.25, 1.76, 2.08, 2.23, 2.17, 1.14, -0.0, -0.0, -0.0, -0.0, -0.0, -0.0, 1.52, 1.67, 3.11, 4.75, 6.4, 6.6, 7.23, 8.61, 7.93, 2.12, -2.3, -3.74, -3.83, -3.48, -3.48, -4.6, -4.6, -4.6, -4.19, -4.19, -4.0, -3.35, -2.98, -2.98, -2.98, 7.13, 7.13, 7.15, 7.15, 7.15, 6.71, 7.15, 7.15, 7.15, 7.15, 7.15, 7.15, 7.15, 7.15, 7.15, 7.6, 7.58, 7.58, 7.6, 5.09, 4.4, 4.37, 4.55, 4.55, 4.55, 4.4, 4.4, 4.4, 4.4, 4.27, 3.88, 3.72, 3.35, 3.35, 3.6, 3.6, 3.87, 4.3, 4.43, 4.44, 4.44, 4.44, 4.77, 5.09, 5.09, 5.31, 5.47, 5.47, 5.21, 5.21, 5.75, 5.86, 5.59, 5.65, 5.69, 5.71, 5.72, 5.09, 4.69, 4.0, 2.97, 2.39, 2.33, 2.3, 2.16, 2.28, 1.14, -0.0, -0.0, -0.0, -0.0, -0.0, -0.0, 0.77, 1.6, 2.39, 4.13, 5.51, 5.48, 6.52, 8.86, 8.85, 2.9, -2.68, -4.15, -4.24, -4.4, -4.6, -4.6, -4.6, -5.2, -4.84, -4.54, -4.6, -3.93, -3.16, -3.16, -3.16, 7.13, 7.13, 7.13, 7.15, 7.15, 7.15, 7.15, 7.15, 7.15, 7.15, 7.15, 7.15, 7.15, 7.13, 7.13, 7.58, 7.58, 7.58, 7.15, 6.26, 4.4, 4.55, 4.55, 4.55, 4.8, 4.8, 4.4, 4.6, 4.6, 4.6, 3.88, 3.88, 3.35, 3.6, 3.6, 3.87, 3.87, 4.43, 4.44, 4.44, 4.34, 4.77, 5.09, 5.09, 5.31, 5.31, 5.08, 5.47, 5.21, 5.21, 5.29, 5.29, 5.35, 5.37, 5.69, 5.71, 5.72, 5.09, 4.69, 4.0, 2.97, 2.39, 2.35, 2.39, 2.3, 2.28, -0.0, -0.0, -0.0, -0.0, -0.0, -0.0, -0.0, 0.81, 1.62, 2.49, 3.25, 4.6, 5.0, 5.72, 7.69, 9.39, 5.63, -0.98, -3.95, -4.38, -4.24, -4.57, -4.57, -5.2, -5.01, -4.54, -4.54, -4.19, -3.93, -3.58, -3.58, -3.58, 7.07, 7.07, 7.13, 7.15, 7.15, 7.15, 7.15, 7.15, 7.6, 7.6, 7.15, 7.13, 7.13, 7.13, 7.13, 7.58, 7.58, 7.6, 7.15, 6.71, 5.02, 4.8, 4.8, 4.8, 4.8, 4.8, 4.8, 5.02, 4.6, 4.6, 4.6, 4.11, 4.11, 3.6, 3.87, 3.87, 4.3, 4.3, 4.34, 4.77, 4.6, 5.02, 4.9, 5.31, 5.31, 5.08, 5.08, 5.08, 5.21, 5.21, 4.94, 5.29, 5.35, 5.37, 5.69, 5.71, 5.72, 5.09, 4.66, 4.0, 2.97, 2.28, 2.25, 2.3, 2.3, 2.04, -0.0, -0.0, -0.0, 0.78, -0.0, -0.0, 0.78, 0.82, 1.56, 2.49, 3.36, 4.07, 4.8, 5.0, 5.72, 8.72, 7.93, 0.76, -4.02, -4.02, -3.74, -3.16, -2.95, -3.79, -3.79, -2.76, -2.76, -2.95, -2.68, -2.84, -2.84, -2.84, 7.07, 7.07, 7.13, 7.13, 7.13, 7.13, 7.13, 7.58, 7.58, 7.58, 7.58, 7.07, 7.07, 7.07, 7.07, 7.13, 7.15, 7.15, 7.15, 7.15, 6.23, 4.8, 4.8, 4.9, 4.9, 4.9, 5.09, 5.09, 5.09, 5.09, 4.6, 4.6, 4.11, 4.11, 4.3, 4.3, 4.34, 4.77, 4.6, 4.6, 4.8, 4.9, 5.31, 5.31, 4.93, 4.55, 4.93, 4.93, 4.84, 5.21, 4.94, 5.29, 5.35, 5.06, 5.38, 5.71, 5.36, 5.09, 4.66, 4.0, 3.32, 2.28, 2.25, 2.33, 2.3, 2.23, -0.0, -0.0, -0.0, 0.78, -0.0, -0.0, -0.0, 0.79, 0.79, 1.62, 3.21, 4.07, 5.0, 4.87, 4.17, 6.31, 9.54, 5.09, -2.24, -4.02, -3.16, -2.11, -0.0, -0.0, -0.96, -0.96, -0.96, -1.08, -0.98, -1.13, -1.13, -1.13, 7.06, 7.06, 6.94, 7.06, 7.06, 7.06, 7.13, 7.58, 7.51, 7.51, 7.51, 7.51, 7.07, 7.07, 7.13, 7.13, 7.15, 7.15, 7.15, 7.15, 6.68, 5.09, 4.9, 5.31, 5.31, 5.51, 5.51, 5.09, 5.09, 5.09, 5.09, 4.6, 4.6, 4.6, 4.19, 4.6, 4.6, 4.6, 5.02, 4.8, 4.9, 5.31, 5.31, 5.08, 4.93, 4.55, 4.93, 4.65, 4.65, 5.21, 4.94, 5.01, 5.01, 5.06, 5.38, 5.38, 5.1, 5.09, 4.69, 4.0, 3.32, 2.42, 2.28, 1.69, 1.74, 1.56, -0.0, -0.0, -0.0, -0.0, -0.0, -0.81, -0.0, -0.0, 0.82, 2.47, 3.21, 3.95, 4.87, 4.17, 3.29, 4.17, 7.23, 9.54, 3.64, -3.04, -2.2, -0.79, 0.76, 2.82, 2.2, 0.88, -0.0, 0.88, 0.98, 1.13, 1.13, 1.13, 6.94, 6.79, 6.94, 6.94, 6.94, 7.06, 7.07, 7.51, 7.51, 7.51, 7.51, 7.51, 7.13, 7.13, 7.15, 7.15, 7.15, 7.15, 7.15, 7.6, 7.13, 5.57, 5.31, 5.31, 5.51, 5.51, 5.51, 5.51, 5.51, 5.51, 5.09, 5.09, 5.09, 4.6, 4.6, 4.6, 5.02, 5.02, 4.9, 4.9, 5.31, 5.31, 5.08, 5.08, 4.93, 4.93, 4.65, 4.65, 5.21, 5.21, 4.94, 4.74, 4.74, 5.37, 5.38, 5.1, 5.1, 5.36, 4.69, 4.0, 3.52, 2.83, 2.28, 1.71, 1.67, 0.8, -0.0, -0.0, -0.0, -0.0, -0.0, -0.0, -0.8, -0.0, 0.85, 2.44, 3.21, 4.13, 4.17, 4.17, 3.16, 3.25, 4.87, 10.25, 10.86, -3.35, -3.11, -2.12, -0.0, 3.53, 5.18, 3.91, 3.11, 2.76, 2.2, 1.8, 1.8, 1.8, 6.79, 7.21, 7.21, 6.79, 6.94, 6.94, 6.94, 7.07, 7.51, 7.58, 7.58, 7.58, 7.15, 7.15, 7.6, 7.6, 7.6, 7.15, 7.6, 7.6, 7.13, 6.61, 5.31, 5.31, 5.57, 5.57, 5.57, 5.57, 5.51, 5.51, 5.51, 5.51, 5.09, 5.09, 5.09, 5.09, 5.09, 4.9, 4.9, 5.31, 5.31, 5.08, 5.08, 5.08, 4.93, 4.65, 4.65, 4.84, 5.21, 4.94, 4.94, 4.74, 4.74, 5.37, 5.08, 5.1, 5.38, 5.1, 4.69, 4.69, 3.52, 2.83, 2.28, 1.71, 1.76, 0.59, -0.0, -0.79, -0.0, -0.0, -0.0, -0.0, -0.0, -0.0, 0.79, 2.54, 3.21, 3.16, 3.29, 3.16, 3.25, 3.36, 4.2, 9.26, 7.96, -0.0, -1.55, -0.78, -0.0, 2.89, 5.77, 5.95, 4.96, 3.33, 2.76, 2.68, 2.68, 2.68, 7.26, 7.26, 7.21, 6.79, 6.94, 6.94, 7.07, 7.51, 7.58, 7.58, 7.6, 7.6, 7.6, 7.6, 7.6, 7.6, 7.6, 7.6, 7.6, 7.6, 7.58, 7.06, 5.81, 5.4, 5.57, 5.57, 5.57, 5.57, 5.57, 5.57, 5.57, 5.57, 5.51, 5.51, 5.09, 5.09, 4.9, 5.31, 5.31, 5.31, 5.31, 5.08, 5.08, 5.08, 4.84, 4.65, 4.84, 5.21, 5.21, 4.94, 4.71, 4.74, 4.74, 5.06, 5.08, 5.38, 5.1, 5.1, 5.1, 4.69, 3.35, 3.01, 2.3, 1.73, 1.69, 0.59, -0.77, -1.58, -0.82, -0.0, -0.0, -0.0, -0.0, -0.0, 0.79, 1.65, 2.28, 2.51, 2.41, 2.39, 3.21, 4.2, 4.96, 12.27, 8.94, 3.64, 0.76, 0.74, 1.44, 2.97, 5.86, 5.86, 4.83, 3.4, 2.6, 2.68, 2.68, 2.68, 7.26, 7.26, 7.4, 7.4, 7.4, 7.4, 7.51, 7.51, 7.58, 7.58, 8.05, 8.05, 8.05, 8.03, 8.03, 8.03, 8.03, 8.03, 7.58, 7.58, 7.58, 7.13, 5.99, 5.81, 5.99, 5.99, 5.99, 5.99, 5.57, 5.57, 5.57, 5.7, 5.57, 5.57, 5.51, 5.51, 5.31, 5.31, 5.31, 5.31, 5.08, 5.08, 5.08, 5.08, 4.84, 5.21, 5.21, 5.21, 5.21, 4.94, 4.71, 4.74, 5.35, 5.06, 5.37, 5.08, 5.38, 5.1, 5.1, 4.45, 3.56, 2.86, 2.3, 1.73, 1.71, 0.6, -1.17, -1.74, -0.82, -0.0, -0.76, -0.0, -0.0, 0.85, 0.8, 0.85, 0.82, 1.58, 2.41, 2.47, 2.35, 4.2, 9.0, 11.28, 7.94, 3.9, 3.0, 2.9, 2.97, 3.78, 5.18, 5.18, 3.45, 1.73, 1.84, 1.08, 1.08, 1.08, 7.87, 7.87, 7.87, 7.87, 7.87, 7.97, 7.51, 7.52, 7.58, 8.05, 8.05, 8.05, 8.03, 8.03, 8.41, 8.42, 8.42, 8.03, 8.03, 8.03, 7.58, 7.58, 7.06, 5.99, 5.99, 6.04, 6.04, 6.16, 6.16, 6.14, 5.7, 5.7, 5.7, 5.7, 5.51, 5.51, 5.31, 5.31, 5.31, 5.31, 5.08, 5.08, 5.08, 5.47, 5.21, 5.21, 5.21, 5.21, 5.21, 4.94, 5.29, 4.74, 5.01, 5.06, 5.06, 5.37, 5.38, 5.1, 4.71, 4.45, 4.03, 2.86, 2.33, 1.75, 1.73, 0.57, -0.59, -1.74, -1.56, -0.77, -0.84, -0.0, -0.0, 0.76, -0.0, -0.0, -0.0, -0.0, 1.62, 2.47, 2.47, 3.36, 8.3, 10.75, 9.48, 5.21, 3.32, 3.11, 3.53, 3.53, 4.4, 3.7, 2.67, 0.89, -0.0, -0.0, -0.0, -0.0, 8.3, 8.3, 8.3, 8.41, 8.41, 7.97, 7.97, 8.03, 8.03, 8.05, 8.05, 8.05, 8.03, 8.03, 8.47, 8.47, 8.47, 8.47, 8.03, 8.03, 8.03, 8.03, 7.13, 6.04, 5.99, 6.04, 6.47, 6.6, 6.6, 6.16, 6.16, 6.16, 5.7, 5.7, 5.57, 5.51, 5.31, 5.31, 5.31, 5.31, 5.47, 5.47, 5.47, 5.47, 5.21, 5.21, 5.21, 5.58, 5.58, 5.29, 5.29, 5.29, 5.01, 5.35, 5.06, 5.37, 5.08, 5.1, 4.73, 4.71, 4.03, 2.89, 2.21, 2.33, 1.65, 0.58, -0.0, -1.67, -1.71, -0.81, -0.0, -0.0, -0.0, -0.0, -0.0, -0.0, -0.0, -0.0, 1.6, 2.47, 2.39, 4.68, 7.01, 9.77, 10.25, 7.12, 4.31, 4.23, 4.5, 3.78, 2.12, 1.55, 0.78, -0.0, -0.0, -0.98, -0.98, -0.98, 8.42, 8.42, 8.42, 8.42, 8.42, 8.42, 8.47, 8.03, 8.05, 8.05, 8.05, 8.05, 8.03, 8.47, 8.47, 8.47, 8.47, 8.47, 8.03, 8.03, 8.03, 8.03, 7.58, 6.16, 6.04, 6.04, 6.6, 6.6, 6.61, 6.61, 6.6, 6.6, 6.16, 5.99, 5.57, 5.57, 5.4, 5.4, 5.81, 5.81, 5.6, 5.6, 5.6, 5.37, 5.37, 5.75, 5.75, 5.75, 5.58, 5.29, 5.29, 5.29, 5.01, 5.35, 5.35, 5.37, 5.08, 5.38, 4.73, 4.46, 4.05, 3.37, 2.37, 2.33, 1.75, 0.55, -0.0, -1.14, -1.79, -1.54, -0.77, -0.0, -0.0, -0.0, -0.0, 0.76, -0.0, -0.0, 0.77, 1.6, 3.25, 4.68, 6.56, 8.84, 10.25, 8.84, 5.1, 4.92, 5.2, 3.53, 0.71, -0.0, -0.0, -0.88, -1.83, -1.98, -1.98, -1.98, 8.42, 8.42, 8.42, 8.42, 8.42, 8.47, 8.47, 8.47, 8.05, 8.05, 8.05, 8.05, 8.49, 8.49, 8.49, 8.47, 8.47, 8.47, 8.47, 8.03, 8.03, 8.03, 8.03, 6.6, 6.16, 6.16, 6.6, 6.61, 7.06, 7.06, 6.94, 6.94, 6.47, 6.47, 6.04, 5.81, 5.81, 5.81, 5.81, 5.81, 5.6, 5.6, 6.0, 5.75, 5.75, 5.75, 5.75, 5.75, 5.75, 5.29, 5.29, 5.29, 5.29, 5.59, 5.59, 5.65, 5.37, 5.08, 4.73, 4.73, 4.05, 3.4, 2.73, 2.37, 1.67, 1.11, -0.0, -1.15, -1.71, -1.56, -0.78, -0.0, -0.0, -0.0, 0.79, 0.8, 1.52, 0.8, 0.8, 2.39, 3.25, 5.0, 6.33, 8.18, 9.6, 8.31, 5.8, 5.6, 5.89, 3.85, -0.0, -2.2, -1.83, -1.83, -2.68, -2.84, -2.84, -2.84, 8.86, 8.86, 8.86, 8.86, 8.86, 8.47, 8.47, 8.49, 8.05, 8.05, 8.05, 8.49, 8.49, 8.05, 8.05, 8.49, 8.47, 8.47, 8.47, 8.03, 8.03, 8.03, 8.03, 7.58, 6.6, 6.16, 6.6, 6.61, 7.06, 7.06, 6.97, 7.4, 6.94, 6.79, 6.3, 6.3, 6.3, 6.3, 6.3, 6.3, 6.0, 6.0, 6.0, 6.0, 5.75, 5.75, 5.75, 5.75, 5.75, 5.75, 5.29, 5.29, 5.86, 5.59, 5.93, 5.65, 5.37, 5.08, 4.75, 4.47, 4.08, 3.4, 2.92, 2.23, 1.78, 1.18, -0.0, -0.55, -1.71, -1.71, -1.16, -0.77, -0.0, 0.83, 0.79, 1.58, 1.6, 1.6, 1.6, 2.59, 3.25, 4.01, 5.72, 7.9, 8.95, 7.79, 5.8, 5.6, 6.36, 5.2, -0.0, -3.48, -3.48, -3.93, -3.93, -3.6, -3.6, -3.6, 8.86, 8.86, 8.86, 8.86, 8.92, 8.47, 8.47, 8.49, 8.05, 8.05, 8.05, 8.49, 8.49, 8.05, 8.05, 8.05, 8.49, 8.47, 8.47, 8.47, 8.03, 8.03, 8.03, 8.03, 7.13, 6.68, 6.68, 6.68, 7.13, 7.06, 7.51, 7.4, 7.4, 7.26, 6.79, 6.79, 6.79, 6.72, 6.3, 6.3, 6.1, 6.1, 6.0, 6.1, 6.1, 6.1, 6.1, 5.75, 5.75, 5.75, 5.75, 5.49, 5.86, 5.86, 5.93, 5.65, 5.37, 5.08, 4.75, 4.75, 4.08, 3.64, 3.4, 2.92, 2.21, 1.12, -0.0, -0.0, -1.1, -1.71, -1.73, -0.78, -0.0, -0.0, 0.84, 1.67, 1.6, 1.68, 1.68, 1.62, 2.49, 4.01, 4.87, 7.01, 8.05, 7.49, 5.8, 5.8, 6.36, 5.89, 1.55, -3.58, -4.4, -4.4, -4.57, -3.74, -3.74, -3.74, 8.86, 8.86, 8.86, 8.86, 8.92, 8.47, 8.47, 8.49, 8.05, 8.49, 8.49, 8.49, 8.49, 8.05, 8.05, 8.05, 8.49, 8.49, 8.49, 8.49, 8.03, 8.03, 8.03, 8.03, 7.58, 7.13, 6.68, 6.68, 7.13, 7.13, 7.51, 7.51, 7.4, 7.26, 7.26, 7.26, 6.79, 6.79, 6.79, 6.72, 6.51, 6.1, 6.1, 6.1, 6.51, 6.51, 6.51, 6.28, 5.75, 5.75, 5.75, 5.86, 5.86, 5.86, 5.93, 5.93, 5.65, 5.37, 4.75, 4.47, 4.1, 3.84, 3.64, 2.92, 2.37, 1.67, 0.59, -0.0, -1.16, -1.73, -1.63, -1.11, -0.0, -0.0, 0.85, 0.81, 1.68, 0.85, 0.82, 0.82, 1.62, 3.16, 4.17, 5.93, 7.49, 7.36, 6.52, 5.67, 6.31, 7.25, 4.07, -2.23, -4.66, -4.66, -4.66, -4.34, -4.34, -4.34, 8.86, 8.86, 8.86, 8.86, 8.92, 8.47, 8.47, 8.49, 8.05, 8.49, 8.49, 8.49, 8.49, 8.05, 8.05, 8.05, 8.49, 8.49, 8.49, 8.49, 8.03, 8.03, 8.03, 8.03, 7.58, 7.13, 6.68, 6.68, 7.13, 7.13, 7.51, 7.51, 7.4, 7.26, 7.26, 7.26, 6.79, 6.79, 6.79, 6.72, 6.51, 6.1, 6.1, 6.1, 6.51, 6.51, 6.51, 6.28, 5.75, 5.75, 5.75, 5.86, 5.86, 5.86, 5.93, 5.93, 5.65, 5.37, 4.75, 4.47, 4.1, 3.84, 3.64, 2.92, 2.37, 1.67, 0.59, -0.0, -1.16, -1.73, -1.63, -1.11, -0.0, -0.0, 0.85, 0.81, 1.68, 0.85, 0.82, 0.82, 1.62, 2.49, 3.16, 4.87, 5.8, 6.52, 6.2, 6.52, 6.31, 7.01, 5.63, 0.96, -3.6, -4.57, -4.57, -4.15, -4.15, -4.15]}, {"header": {"dx": 0.06612293990616946, "dy": 0.0552356325346848, "nx": 98, "ny": 59, "la1": 35.046912555036876, "la2": 31.78801023549047, "lo1": -121.43107172385933, "lo2": -114.95102361305473, "refTime": "2026041116", "parameterCategory": 1, "parameterNumber": 3}, "data": [2.68, 3.07, 2.91, 2.5, 1.88, 1.4, 1.2, 1.2, 1.24, 1.24, 1.26, 1.26, 1.9, 2.4, 2.4, 2.68, 3.13, 3.13, 3.58, 3.58, 3.58, 3.13, 1.79, -0.0, 1.0, 1.4, 1.13, 1.13, -0.0, -0.0, -1.13, -1.13, -1.98, -0.99, -0.0, -0.0, 1.98, 3.35, 3.35, 1.98, 0.85, -0.0, 0.0, -2.21, -1.8, -1.83, -2.6, -3.47, -3.47, -2.6, -0.81, 0.79, 1.98, 2.84, 3.58, 4.6, 6.02, 7.11, 6.71, 5.29, 3.47, 2.4, 1.2, 2.21, 2.97, 3.13, 3.39, 3.58, 3.39, 2.84, 2.23, 2.53, 2.8, 2.8, 2.24, 1.26, 1.58, 1.79, 0.0, 0.0, -1.79, -1.79, 0.0, 0.0, 1.58, 2.54, 5.09, 6.7, 7.35, 7.2, 7.12, 6.7, 6.94, 7.1, 7.15, 7.15, 7.15, 7.1, 2.68, 2.68, 2.63, 2.6, 2.4, 1.9, 1.2, 1.2, 0.54, 1.24, 1.26, 2.21, 2.21, 2.4, 3.13, 3.13, 2.68, 4.02, 4.02, 2.68, 4.02, 4.02, 3.58, 2.68, 0.0, -0.0, -0.0, 1.0, -0.0, -0.0, -0.0, -1.58, -2.4, -2.8, -2.21, -1.2, -0.0, 0.99, 0.99, -0.0, -0.0, -2.68, -3.58, -3.35, -3.16, -2.76, -2.6, -3.47, -3.63, -2.76, -0.88, 0.0, 1.9, 2.23, 3.6, 5.09, 7.1, 8.01, 8.94, 8.05, 6.26, 4.02, 2.0, 1.58, 2.0, 2.68, 2.68, 2.4, 1.13, 0.98, 0.98, 2.23, 2.23, 2.53, 2.21, 1.98, 1.8, 1.79, 0.0, 0.0, -1.79, -1.79, 0.0, 0.0, 1.58, 2.54, 5.09, 6.7, 7.35, 7.2, 7.12, 6.7, 6.94, 7.1, 7.15, 7.15, 7.15, 7.1, 2.24, 2.68, 2.68, 2.24, 2.24, 2.12, 1.86, 1.24, 1.2, 1.2, 1.9, 1.86, 2.8, 2.4, 2.0, 2.68, 2.68, 3.13, 3.13, 4.02, 2.68, 3.58, 3.6, 2.53, 3.13, 0.0, -1.26, -0.0, -0.0, 0.0, 1.79, 0.0, 0.0, -2.53, -3.13, -4.02, -2.21, -1.4, -0.0, -1.0, -2.0, -3.13, -3.6, -3.58, -3.48, -2.95, -3.35, -3.79, -3.63, -2.4, -0.88, 0.0, 2.0, 2.0, 3.47, 5.31, 6.71, 8.05, 8.49, 8.9, 8.36, 6.98, 4.85, 3.13, 2.68, 3.13, 3.13, 0.99, -0.0, -0.96, -0.0, 0.96, 1.83, 2.68, 3.16, 2.95, 2.76, 2.23, -0.0, -0.0, -1.9, -1.2, -0.0, -0.0, 1.26, 2.54, 5.09, 6.8, 7.42, 6.8, 6.57, 5.75, 6.02, 6.26, 6.26, 6.65, 6.71, 7.1, 2.17, 2.24, 2.24, 2.24, 2.24, 2.24, 2.24, 2.12, 1.58, 1.4, 1.61, 1.86, 2.8, 2.4, 2.68, 2.68, 2.68, 3.13, 3.13, 3.13, 3.13, 3.58, 2.53, 2.8, 2.21, 0.0, -1.79, -2.24, -0.0, 0.0, 2.24, 2.8, 2.53, 2.0, 0.0, 0.0, 0.0, 0.0, -1.26, -2.24, -3.13, -3.9, -3.35, -2.84, -3.16, -2.68, -3.48, -4.19, -3.63, -2.4, -0.7, 0.0, 1.34, 2.68, 3.95, 5.36, 6.26, 7.6, 8.49, 8.94, 9.8, 9.7, 7.71, 6.02, 4.82, 4.02, 3.47, 0.99, -0.79, -1.66, -0.96, -0.0, 0.96, 2.2, 3.07, 2.76, 1.99, 1.05, -0.0, -0.0, -0.0, -0.0, -0.0, 1.2, 3.13, 5.29, 6.7, 7.76, 7.42, 6.4, 5.6, 5.51, 5.29, 5.81, 6.02, 6.64, 6.71, 6.65, 2.17, 2.24, 2.68, 2.24, 2.24, 2.24, 2.12, 2.24, 2.12, 1.58, 1.24, 1.24, 2.4, 2.4, 2.68, 3.13, 2.68, 3.13, 3.58, 3.58, 4.47, 4.47, 3.6, 3.6, 2.21, 2.84, 0.0, 0.0, 0.0, 1.79, 2.24, 2.4, 2.21, 3.35, 4.46, 4.46, 4.84, 3.79, 1.79, -1.79, -2.4, -2.4, -2.21, -2.21, -2.23, -3.16, -3.93, -4.19, -3.63, -1.83, -0.99, 0.0, 1.79, 3.13, 4.47, 5.36, 5.81, 7.15, 8.94, 10.28, 10.7, 10.45, 9.97, 9.06, 7.55, 5.81, 4.0, 2.21, -0.0, -1.13, -0.0, -0.0, 0.76, 1.98, 2.99, 2.3, 0.96, -0.0, -0.0, -0.0, -0.0, 1.83, 3.16, 4.57, 6.2, 7.85, 8.3, 8.17, 7.2, 6.57, 6.02, 5.73, 5.81, 5.73, 6.16, 6.94, 7.15, 6.65, 2.17, 2.6, 2.6, 2.68, 2.68, 2.24, 2.17, 2.17, 2.68, 2.17, 1.86, 1.26, 1.58, 1.58, 2.24, 2.68, 3.13, 2.97, 3.39, 3.47, 3.9, 4.02, 4.92, 4.92, 4.4, 4.4, 4.4, 4.0, 4.47, 4.02, 1.58, 0.0, 1.2, 2.21, 3.22, 4.22, 4.54, 4.19, 2.97, 0.0, 0.0, 0.0, 0.0, 0.0, -0.99, -1.98, -3.16, -3.48, -1.83, 0.0, 0.0, 0.89, 2.4, 3.2, 3.58, 3.95, 4.47, 6.65, 9.26, 10.7, 10.7, 10.45, 10.45, 10.45, 9.7, 7.6, 4.57, 2.84, 1.98, 1.4, 0.99, 1.27, 2.76, 2.8, 2.6, 1.83, -0.0, -0.0, 0.88, 0.88, 3.35, 5.58, 5.82, 6.7, 7.35, 7.42, 7.42, 6.8, 6.57, 6.16, 6.51, 6.71, 6.2, 6.16, 6.7, 7.54, 7.15, 6.65, 2.17, 2.6, 2.6, 2.68, 2.68, 2.68, 2.6, 2.63, 3.07, 3.13, 2.68, 1.79, 1.79, -0.0, -0.0, 2.24, 2.68, 2.4, 2.4, 2.4, 2.54, 3.39, 4.02, 4.02, 4.92, 4.92, 4.92, 4.66, 4.66, 3.35, 2.0, 1.4, 2.21, 3.39, 3.6, 3.83, 3.79, 4.74, 4.66, 1.58, 0.0, 0.0, 0.0, 1.6, 2.0, 0.98, 0.0, -0.96, 0.0, 1.55, 2.84, 2.24, 2.21, 1.9, 1.79, 1.26, 2.24, 5.34, 8.82, 9.7, 8.94, 9.26, 10.6, 11.06, 10.45, 8.45, 5.51, 2.68, 2.68, 3.16, 2.23, 3.16, 3.35, 3.63, 1.99, 0.88, -0.0, -0.0, 1.84, 3.72, 5.49, 6.18, 6.6, 6.8, 6.82, 6.08, 5.82, 5.58, 6.16, 6.16, 6.07, 6.26, 6.94, 6.7, 6.94, 7.15, 7.15, 6.65, 2.4, 2.6, 2.6, 2.6, 2.68, 2.68, 3.13, 3.07, 3.53, 4.02, 4.02, 3.13, 3.13, 2.68, 2.68, 1.79, 2.24, 2.68, 2.24, 1.79, 1.79, 2.0, 3.13, 3.58, 3.58, 4.47, 4.47, 4.0, 4.4, 3.48, 4.4, 4.66, 4.66, 5.09, 3.6, 3.22, 2.68, 3.48, 4.84, 4.02, 3.13, 3.13, 2.53, 4.0, 4.46, 3.22, 1.99, 1.7, 2.99, 5.01, 4.57, 3.58, 1.2, -0.0, 0.0, 0.0, 0.89, 4.54, 7.42, 7.85, 8.05, 8.94, 10.28, 10.6, 10.25, 9.24, 5.73, 2.68, 1.66, 1.83, 1.83, 2.76, 2.76, 1.99, 0.96, -0.0, -0.0, 1.83, 3.47, 3.47, 3.35, 4.43, 4.43, 4.43, 4.43, 4.43, 4.01, 4.43, 5.2, 5.51, 5.75, 6.26, 6.94, 7.42, 7.55, 7.15, 7.15, 6.71, 2.4, 2.4, 2.6, 2.6, 2.68, 3.13, 3.13, 3.58, 4.02, 4.02, 4.02, 4.02, 5.36, 4.02, 3.13, 3.13, 3.13, 3.13, 2.68, 2.68, 3.13, 3.58, 2.8, 3.13, 3.13, 3.58, 3.58, 3.6, 4.0, 4.0, 4.47, 4.92, 4.92, 4.66, 4.0, 2.84, 3.16, 3.48, 4.46, 4.66, 4.47, 4.02, 4.02, 4.0, 3.48, 2.68, 2.4, 3.76, 5.77, 6.55, 7.06, 4.47, -0.0, -1.26, -1.79, -2.4, -0.0, 3.63, 6.44, 7.89, 8.9, 9.8, 9.83, 10.25, 10.18, 8.63, 5.29, 2.0, 0.88, 0.88, 0.82, 0.76, 0.88, -0.0, -0.0, 0.88, 2.76, 5.49, 6.82, 6.0, 4.6, 3.07, 3.07, 3.07, 3.07, 2.98, 2.98, 3.63, 3.84, 5.09, 5.81, 6.26, 6.71, 7.55, 7.55, 7.6, 7.15, 6.71, 2.5, 2.4, 2.4, 2.6, 2.63, 3.13, 3.13, 3.58, 3.58, 4.02, 4.02, 4.02, 4.02, 3.58, 4.02, 3.58, 3.58, 3.58, 4.47, 4.47, 4.02, 4.02, 3.58, 4.02, 3.58, 3.58, 3.58, 3.58, 3.6, 3.6, 4.47, 4.47, 4.47, 4.0, 3.48, 3.79, 3.48, 2.98, 4.46, 4.46, 3.9, 3.39, 2.97, 2.21, 2.21, 1.98, 2.68, 3.63, 5.77, 7.44, 8.3, 7.11, 2.97, -2.0, -2.68, -2.97, -0.95, 2.53, 6.94, 10.45, 11.51, 11.51, 11.62, 10.7, 9.97, 8.33, 3.6, -0.0, 0.73, 0.88, -0.0, -0.0, -0.0, -0.0, 0.79, 2.53, 5.82, 8.4, 9.4, 8.82, 7.15, 4.92, 1.74, 1.74, 0.99, 0.87, 1.8, 2.41, 3.58, 4.66, 5.77, 6.26, 7.15, 7.15, 7.6, 7.15, 7.15, 6.71, 2.21, 2.5, 2.4, 2.4, 2.63, 3.07, 3.07, 3.13, 3.58, 3.58, 3.58, 3.58, 4.02, 4.02, 4.47, 4.02, 3.58, 2.24, 2.24, 2.24, 3.58, 3.13, 3.13, 2.68, 3.58, 3.58, 3.58, 4.02, 4.02, 3.6, 4.02, 3.13, 3.13, 2.4, 1.4, 1.55, 3.79, 4.46, 3.58, 3.48, 3.58, 2.98, 2.21, 1.6, 1.6, 1.98, 2.68, 3.63, 5.15, 7.76, 10.45, 11.06, 8.94, 4.02, 0.0, 0.0, 1.79, 3.22, 8.82, 12.58, 12.58, 12.27, 11.15, 10.28, 9.8, 8.46, 3.35, -0.96, -0.0, -0.0, -0.0, -0.81, -0.88, -0.0, 0.79, 3.35, 6.06, 8.43, 9.24, 8.9, 8.01, 6.98, 5.16, 1.79, -0.0, -0.0, -0.0, 1.0, 2.98, 4.22, 4.93, 6.02, 6.2, 6.64, 6.71, 6.71, 6.71, 6.26, 2.53, 2.21, 2.5, 2.5, 2.91, 2.91, 3.07, 3.07, 3.13, 3.58, 3.58, 3.58, 3.58, 3.58, 3.58, 3.58, 2.68, 2.24, 2.24, 2.17, 2.17, 2.12, 2.12, 3.2, 3.58, 3.58, 3.58, 2.12, 2.8, 3.2, 3.58, 2.68, 2.24, 1.58, 0.99, 2.23, 3.16, 3.93, 3.58, 2.95, 2.95, 1.8, 1.13, 1.6, 2.53, 2.98, 5.09, 6.0, 7.94, 9.83, 11.15, 12.49, 12.94, 11.36, 6.44, 5.75, 7.11, 7.15, 9.24, 11.87, 13.01, 11.96, 9.8, 8.49, 9.83, 10.73, 7.55, 1.13, -1.99, -0.82, -0.76, -0.73, -0.79, -0.0, -0.0, 2.6, 5.69, 6.73, 6.64, 6.55, 7.1, 7.37, 7.12, 4.0, 2.6, 1.26, 0.0, -0.0, 2.0, 3.22, 3.84, 4.46, 5.34, 6.02, 5.75, 5.81, 5.81, 6.26, 2.53, 2.53, 2.5, 2.68, 2.68, 2.68, 2.91, 3.07, 3.13, 3.13, 3.58, 3.58, 3.58, 3.58, 3.58, 3.58, 3.09, 3.07, 2.6, 2.17, 2.12, 2.12, 1.86, 1.86, 1.58, 1.58, 1.58, 1.58, 1.49, 1.24, 1.4, 1.2, 1.58, 0.0, 1.2, 1.98, 2.84, 3.16, 2.84, 2.0, 1.66, 0.88, 0.98, 0.99, 3.2, 4.47, 5.81, 6.71, 7.6, 8.05, 8.05, 8.94, 10.28, 10.96, 10.6, 11.57, 12.47, 11.4, 7.42, 10.0, 12.58, 11.15, 8.49, 7.6, 11.06, 13.76, 13.39, 10.73, 5.36, 1.13, -2.99, -3.63, -2.2, -1.83, -0.0, 2.76, 6.8, 6.82, 6.0, 5.59, 5.36, 6.2, 6.07, 6.45, 6.21, 5.6, 3.39, 1.79, 2.68, 3.04, 2.86, 3.84, 4.84, 5.2, 5.09, 5.29, 5.36, 6.26, 2.21, 2.53, 2.79, 3.07, 3.07, 3.07, 3.07, 2.91, 3.07, 3.13, 3.13, 3.53, 3.53, 3.58, 3.58, 3.58, 3.53, 3.53, 3.39, 2.91, 2.49, 2.4, 1.86, 1.58, 1.24, 1.24, 1.24, 0.71, 0.71, 0.71, 0.54, 0.99, 0.0, 0.0, 1.2, 2.21, 1.98, 1.98, 1.13, 0.98, 0.0, 0.0, 0.0, 1.6, 3.58, 4.47, 4.38, 5.36, 5.81, 6.26, 6.26, 6.71, 6.71, 7.06, 8.43, 9.83, 10.6, 10.16, 8.05, 9.27, 12.58, 11.62, 10.28, 10.28, 11.84, 14.11, 15.12, 14.75, 13.23, 8.72, 3.6, -1.4, -3.48, -2.0, 1.98, 6.65, 8.94, 8.49, 6.65, 5.51, 5.29, 5.36, 5.29, 4.41, 6.7, 7.2, 6.57, 5.26, 4.38, 4.02, 3.58, 4.15, 4.4, 4.6, 3.83, 4.82, 5.36, 5.81, 1.86, 2.5, 2.53, 3.07, 3.07, 3.07, 3.07, 3.07, 2.91, 3.07, 3.13, 3.13, 3.53, 3.53, 3.58, 3.58, 3.58, 3.98, 3.87, 3.82, 3.39, 3.07, 2.5, 1.9, 1.24, 0.71, 0.71, 0.57, 0.57, 0.71, 0.0, 0.0, 0.0, 0.0, 2.21, 2.53, 1.8, 1.13, 0.0, 0.0, 0.0, 0.0, 0.0, 0.0, 3.13, 3.58, 4.47, 4.24, 4.24, 4.92, 5.36, 5.81, 4.92, 4.92, 6.71, 7.15, 7.2, 8.24, 9.39, 10.8, 11.18, 10.66, 10.73, 11.12, 11.88, 12.31, 13.81, 13.41, 12.51, 12.45, 11.2, 8.67, 4.74, 5.6, 8.82, 11.18, 11.11, 9.06, 6.65, 5.36, 4.92, 4.92, 4.38, 4.02, 3.58, 5.75, 6.8, 6.7, 5.64, 5.73, 5.36, 4.47, 4.85, 4.85, 4.82, 5.36, 6.26, 6.26, 1.79, 1.86, 2.5, 3.07, 3.07, 3.2, 3.2, 3.07, 2.68, 2.91, 2.63, 3.13, 3.09, 3.53, 3.53, 3.58, 3.58, 3.98, 3.87, 3.82, 3.39, 3.39, 3.2, 2.53, 1.61, 0.71, 0.0, 0.0, 0.0, 0.0, 0.0, 0.0, 0.0, 0.0, 1.6, 1.2, 0.99, 0.99, 0.0, 0.0, 0.0, 0.0, 0.0, 0.0, 0.0, 3.13, 4.02, 4.24, 3.82, 3.82, 4.47, 4.92, 4.77, 5.36, 6.26, 6.26, 6.61, 8.94, 10.68, 10.04, 8.63, 8.6, 8.17, 8.87, 8.87, 9.54, 8.8, 10.73, 11.35, 12.27, 12.3, 13.29, 12.57, 12.62, 13.49, 13.43, 11.2, 7.76, 5.51, 4.82, 4.82, 4.82, 4.92, 4.47, 4.34, 4.47, 6.02, 6.7, 6.94, 6.02, 5.75, 4.47, 5.36, 5.81, 5.81, 5.81, 6.21, 6.21, 1.6, 1.79, 2.12, 2.4, 2.68, 3.07, 3.39, 3.07, 3.07, 2.68, 2.4, 2.68, 3.13, 3.07, 3.09, 3.58, 3.58, 3.98, 3.53, 3.39, 2.91, 3.39, 3.6, 3.14, 1.88, 0.71, 0.0, 0.0, 0.0, 0.0, 0.0, 0.0, 0.0, 0.0, 0.85, 0.85, 0.0, 0.0, 0.0, 0.0, 0.0, 0.0, 0.0, 0.0, 0.0, 3.2, 4.02, 4.02, 4.02, 3.58, 3.58, 4.02, 4.66, 5.7, 6.26, 6.71, 6.71, 7.15, 7.15, 7.52, 7.97, 7.06, 6.14, 6.14, 7.06, 7.42, 9.03, 9.54, 10.66, 11.18, 11.03, 9.56, 10.65, 12.5, 13.51, 13.51, 11.64, 8.67, 6.7, 6.51, 6.94, 6.65, 6.26, 5.81, 5.81, 5.36, 5.29, 6.94, 6.94, 6.45, 5.09, 4.47, 5.81, 7.11, 7.42, 6.98, 6.79, 6.79, 1.24, 1.58, 1.7, 2.24, 2.4, 2.91, 3.39, 3.39, 3.32, 2.91, 2.8, 2.6, 2.68, 3.13, 3.13, 3.13, 3.58, 3.53, 3.53, 3.07, 2.63, 3.53, 3.87, 3.35, 2.21, 0.8, 0.0, 0.0, 0.0, 0.0, 0.0, 0.0, 0.0, 0.0, 0.0, 0.0, 0.0, 0.0, 0.0, 0.0, 0.0, 0.0, 0.0, 1.41, 3.16, 4.0, 4.24, 3.6, 4.0, 3.6, 3.6, 3.6, 4.66, 5.64, 6.14, 6.26, 6.26, 5.81, 5.81, 6.26, 7.5, 7.06, 6.71, 7.06, 7.52, 7.21, 7.44, 7.56, 6.9, 7.15, 7.56, 7.12, 7.82, 9.49, 10.43, 11.2, 11.25, 12.23, 11.09, 10.45, 9.7, 8.45, 7.6, 7.15, 7.6, 7.55, 8.33, 7.63, 7.63, 7.76, 6.8, 6.02, 6.21, 7.45, 7.63, 7.63, 6.54, 6.54, 0.71, 1.0, 1.24, 1.86, 2.24, 2.6, 3.07, 3.07, 3.09, 2.91, 2.91, 2.4, 2.6, 2.68, 3.13, 3.58, 3.58, 3.58, 3.09, 3.07, 2.68, 3.58, 3.53, 4.0, 3.6, 3.6, 1.86, 2.21, 2.21, 0.57, 0.0, 0.0, 0.0, 0.0, 0.0, 0.0, 0.0, 0.0, 0.0, 0.0, 0.88, 0.96, 1.3, 2.6, 4.11, 4.11, 3.79, 4.09, 4.09, 4.09, 4.09, 4.46, 5.2, 6.14, 6.58, 7.06, 6.58, 6.58, 6.71, 6.71, 7.15, 7.15, 7.97, 7.42, 6.21, 6.4, 7.69, 6.01, 2.76, 3.58, 3.4, 4.87, 6.47, 6.6, 6.56, 7.18, 8.82, 11.09, 12.98, 12.56, 8.77, 7.55, 7.6, 7.56, 8.01, 8.33, 8.56, 8.14, 8.72, 8.55, 8.63, 8.4, 7.63, 7.71, 8.3, 7.76, 6.8, 6.8, 0.65, 1.2, 1.2, 1.2, 1.9, 2.17, 2.68, 2.68, 3.13, 3.13, 3.07, 2.91, 2.6, 2.6, 2.68, 2.68, 3.13, 3.13, 4.02, 4.02, 4.02, 3.53, 3.53, 4.0, 3.58, 3.58, 3.48, 2.84, 2.51, 1.84, 1.16, 0.0, 0.0, 0.0, 0.0, 0.0, 0.0, 0.0, 0.0, 0.54, 1.16, 1.67, 1.8, 2.14, 2.8, 2.66, 2.8, 3.76, 4.11, 3.79, 4.46, 4.46, 5.2, 5.81, 5.75, 6.28, 7.21, 5.59, 5.16, 7.5, 7.15, 7.15, 7.5, 7.06, 4.92, 5.86, 8.0, 6.44, 3.58, 1.79, 0.96, 0.85, 1.57, 2.39, 2.47, 3.91, 5.26, 7.1, 10.43, 9.9, 8.56, 7.85, 7.42, 7.85, 7.63, 7.71, 7.98, 8.24, 8.24, 8.24, 9.03, 9.42, 8.8, 8.3, 7.6, 7.44, 6.79, 6.79, 0.65, 0.61, 1.16, 1.16, 1.16, 1.61, 2.0, 2.24, 2.68, 3.13, 3.13, 3.13, 2.63, 2.6, 2.6, 2.68, 2.68, 2.68, 3.13, 3.58, 3.47, 2.91, 3.32, 3.07, 2.53, 3.16, 3.15, 2.86, 2.86, 2.44, 1.8, 1.13, 0.59, 0.59, 0.59, 0.0, 0.0, 0.0, 0.0, 0.0, 0.58, 1.12, 1.63, 1.73, 2.26, 2.21, 2.66, 2.49, 2.8, 4.11, 4.46, 4.84, 5.2, 5.6, 6.23, 6.16, 7.12, 5.75, 5.81, 7.63, 8.41, 8.05, 7.5, 4.92, 3.95, 7.11, 9.06, 8.33, 6.71, 5.09, 4.16, 1.68, 0.0, -0.82, 1.58, 2.4, 3.04, 5.36, 6.94, 8.56, 8.82, 9.06, 9.06, 8.48, 8.82, 9.24, 8.95, 9.2, 9.14, 8.3, 8.63, 9.05, 9.05, 7.92, 7.32, 6.68, 5.69, 5.69, 0.61, 0.61, 1.13, 1.13, 1.13, 1.13, 1.61, 2.23, 2.17, 2.68, 3.13, 3.13, 3.13, 2.68, 2.6, 2.6, 2.6, 2.6, 2.68, 2.24, 2.6, 2.91, 2.68, 3.07, 3.14, 3.16, 3.15, 2.86, 2.86, 2.86, 2.44, 1.76, 1.58, 1.11, 1.11, 1.11, 0.57, 0.55, 0.55, 0.54, 0.59, 1.14, 1.65, 1.63, 2.26, 2.29, 2.4, 2.49, 2.6, 3.22, 4.11, 4.65, 5.01, 5.01, 5.01, 6.64, 7.35, 6.4, 5.81, 7.63, 8.56, 8.01, 6.71, 3.04, 4.15, 9.39, 10.6, 9.8, 9.83, 10.66, 11.03, 10.79, 5.6, -0.0, 2.0, 1.74, 1.9, 3.04, 4.47, 6.26, 8.9, 10.49, 11.61, 12.09, 11.87, 11.5, 11.09, 10.96, 9.9, 8.55, 8.88, 8.55, 8.24, 7.64, 7.02, 6.32, 6.01, 6.01, 0.51, 0.51, 0.59, 1.11, 1.11, 1.11, 1.11, 1.13, 1.9, 2.17, 2.68, 3.13, 3.13, 3.13, 2.68, 2.6, 2.6, 2.6, 2.24, 2.24, 2.24, 2.6, 2.91, 3.07, 3.14, 2.84, 3.43, 3.48, 3.2, 3.12, 3.12, 2.44, 2.22, 1.76, 1.76, 1.23, 1.23, 1.08, 1.19, 1.19, 1.16, 1.16, 1.67, 1.8, 2.32, 2.32, 2.4, 1.32, 1.41, 2.98, 4.11, 5.01, 4.43, 3.76, 5.01, 6.64, 7.35, 6.94, 5.6, 6.94, 8.33, 8.33, 6.02, 3.22, 6.66, 12.49, 11.96, 10.25, 10.28, 10.28, 12.07, 12.6, 5.15, 3.6, 4.09, 2.6, 1.9, 2.6, 3.6, 5.59, 8.01, 11.18, 12.86, 13.49, 12.98, 12.7, 12.15, 10.87, 10.29, 8.93, 7.96, 7.96, 7.59, 6.58, 6.32, 6.01, 5.69, 5.69, 0.59, 0.59, 0.59, 1.11, 1.23, 1.23, 1.08, 1.08, 1.27, 1.9, 2.6, 2.6, 2.63, 3.07, 2.68, 2.68, 2.63, 2.6, 2.68, 2.68, 2.68, 2.6, 2.6, 2.91, 3.07, 3.14, 3.16, 2.86, 3.48, 3.12, 2.84, 2.84, 2.2, 2.44, 1.94, 1.76, 1.57, 1.57, 1.73, 1.73, 1.19, 1.16, 1.16, 1.16, 1.14, 1.16, 1.18, 1.32, 2.32, 4.02, 4.02, 4.02, 4.02, 3.76, 5.36, 6.13, 6.7, 7.35, 6.23, 7.21, 8.33, 7.89, 4.22, 4.15, 9.81, 13.77, 12.94, 11.62, 9.83, 9.35, 8.49, 9.48, 8.99, 6.53, 5.64, 4.02, 2.84, 1.8, 3.16, 4.8, 8.36, 10.26, 11.6, 11.71, 12.04, 11.2, 10.66, 9.66, 9.66, 9.26, 8.31, 6.58, 5.86, 5.94, 5.69, 6.06, 6.06, 6.06, 0.57, 0.57, 0.57, 1.11, 1.23, 1.08, 1.08, 1.19, 1.19, 1.8, 1.9, 2.6, 2.6, 2.6, 2.63, 2.68, 2.68, 2.63, 2.68, 2.68, 2.68, 2.6, 2.6, 2.4, 2.5, 2.79, 3.14, 2.84, 2.86, 2.86, 3.12, 2.84, 2.84, 2.84, 2.2, 2.2, 2.2, 1.73, 1.73, 1.73, 1.19, 1.19, 0.54, 0.59, 0.59, 0.0, 0.0, 0.58, 1.8, 2.32, 2.8, 3.4, 3.45, 4.02, 4.74, 6.13, 7.21, 6.51, 7.21, 7.74, 9.11, 7.63, 4.15, 5.81, 10.93, 13.65, 12.49, 10.73, 9.83, 7.6, 6.07, 6.73, 12.33, 12.78, 8.06, 2.24, -0.0, -0.0, 2.0, 5.2, 8.19, 10.26, 10.7, 10.8, 10.55, 10.04, 9.04, 9.04, 8.31, 8.59, 8.93, 6.58, 5.21, 4.95, 5.43, 5.72, 6.08, 6.08, 0.57, 0.57, 0.63, 0.63, 1.08, 1.08, 1.19, 0.61, 0.54, 1.19, 1.8, 2.5, 2.4, 2.4, 2.4, 2.68, 2.68, 2.68, 2.68, 2.68, 2.24, 2.24, 2.6, 2.4, 2.8, 2.5, 2.53, 2.84, 2.84, 2.86, 2.86, 3.12, 2.84, 2.84, 2.84, 2.84, 2.4, 2.4, 1.73, 1.73, 1.19, 1.19, 0.54, 0.0, 0.0, 0.0, 0.0, 0.58, 1.65, 2.29, 2.77, 2.32, 3.91, 3.68, 5.37, 5.93, 7.21, 7.06, 7.52, 8.17, 8.22, 7.07, 4.15, 6.51, 9.49, 12.27, 11.59, 10.25, 8.9, 8.05, 6.65, 7.6, 10.9, 15.44, 14.11, 6.57, -0.87, -0.87, 2.23, 6.16, 8.8, 9.83, 10.26, 10.05, 10.27, 10.04, 9.43, 8.42, 8.06, 7.95, 9.04, 7.59, 6.01, 5.43, 5.82, 6.18, 6.08, 6.08, 0.55, 0.55, 0.55, 0.55, 1.08, 1.19, 1.19, 0.61, 0.54, 0.59, 1.19, 1.6, 2.5, 2.15, 2.8, 2.63, 2.68, 2.68, 2.68, 2.68, 2.24, 2.24, 2.24, 2.6, 2.4, 2.5, 2.53, 2.53, 2.51, 2.84, 2.86, 2.48, 2.86, 3.12, 2.84, 2.84, 3.08, 2.82, 2.36, 2.4, 1.88, 1.16, 1.16, 0.0, 0.0, 0.0, 0.59, 1.14, 1.65, 2.29, 2.29, 2.32, 2.8, 3.47, 4.95, 5.77, 6.8, 6.79, 6.51, 7.21, 7.76, 7.07, 6.58, 6.98, 8.8, 9.97, 10.62, 7.55, 8.01, 8.05, 6.71, 6.65, 8.82, 12.51, 16.09, 13.85, 4.74, -1.0, 1.13, 6.02, 8.45, 9.39, 9.36, 8.82, 8.91, 8.8, 8.67, 8.42, 8.05, 8.4, 8.24, 8.3, 8.03, 6.79, 6.08, 6.08, 6.08, 6.08, 0.54, 0.54, 0.61, 0.61, 1.19, 0.54, 0.54, 0.54, 0.54, 0.59, 0.59, 1.08, 1.84, 2.21, 2.68, 2.91, 3.07, 3.13, 3.13, 2.68, 2.68, 2.68, 2.68, 2.6, 2.4, 2.8, 2.5, 2.53, 2.79, 2.79, 2.51, 2.51, 2.48, 2.44, 2.86, 2.84, 2.84, 3.08, 2.82, 2.36, 2.18, 1.7, 1.7, 2.36, 2.36, 2.16, 1.8, 1.14, 1.8, 1.8, 2.32, 3.0, 3.45, 3.85, 4.45, 5.77, 6.8, 6.8, 7.21, 7.35, 7.07, 7.67, 7.42, 6.66, 6.79, 10.18, 9.83, 7.11, 6.65, 6.71, 6.65, 5.75, 5.59, 7.42, 10.28, 12.13, 10.73, 5.0, 3.63, 5.29, 7.6, 8.05, 7.58, 7.12, 6.28, 6.0, 6.64, 7.82, 8.4, 8.72, 8.4, 8.06, 8.64, 7.31, 7.06, 6.06, 5.37, 5.37, 0.59, 0.59, 0.54, 0.54, 0.54, 0.54, 0.59, 0.59, 0.59, 0.54, 0.59, 0.59, 1.23, 1.84, 2.5, 3.2, 3.39, 3.53, 3.53, 3.53, 3.09, 3.07, 3.07, 2.63, 2.6, 2.91, 2.68, 3.07, 2.79, 2.79, 2.23, 2.51, 2.23, 2.48, 2.22, 2.44, 2.84, 2.84, 2.82, 2.82, 2.82, 2.82, 2.84, 3.47, 3.33, 3.22, 2.32, 1.67, 2.36, 2.16, 2.8, 3.45, 4.1, 4.1, 4.75, 5.35, 7.07, 7.81, 7.89, 7.89, 8.0, 8.3, 7.89, 6.71, 6.79, 11.84, 11.18, 8.05, 5.73, 5.31, 6.65, 6.51, 4.8, 4.54, 4.26, 4.75, 7.82, 9.67, 8.95, 6.79, 6.65, 6.71, 6.71, 5.33, 5.29, 4.85, 5.16, 7.12, 8.3, 8.72, 7.82, 7.81, 6.95, 7.59, 7.31, 5.94, 6.01, 6.01, 0.53, 0.53, 0.59, 0.59, 0.59, 0.59, 0.59, 0.59, 0.59, 0.59, 0.0, 0.0, 0.59, 1.11, 2.21, 3.07, 3.39, 3.87, 3.98, 3.98, 3.97, 3.39, 3.82, 3.39, 3.32, 3.32, 2.68, 3.07, 3.07, 2.53, 2.53, 2.23, 2.51, 2.23, 2.48, 2.22, 2.44, 2.4, 2.84, 3.08, 2.82, 3.08, 3.08, 2.84, 3.08, 3.55, 3.4, 3.04, 3.47, 3.72, 3.85, 4.1, 4.1, 4.36, 4.47, 5.59, 6.41, 6.95, 8.4, 8.0, 8.0, 8.4, 7.71, 6.65, 8.24, 10.01, 11.15, 10.66, 6.26, 4.57, 6.26, 7.21, 6.44, 6.01, 1.75, 0.81, 4.13, 8.18, 10.65, 9.23, 7.42, 5.33, 4.92, 4.47, 4.02, 4.85, 5.31, 5.86, 6.4, 6.32, 6.08, 6.01, 5.94, 7.18, 6.51, 6.58, 5.86, 5.86, 0.58, 0.58, 0.53, 0.59, 0.59, 0.59, 0.59, 0.53, 0.53, 0.53, 0.0, 0.0, 0.0, 0.59, 1.13, 2.5, 3.32, 3.39, 3.87, 3.87, 3.87, 4.11, 3.6, 3.6, 3.6, 3.07, 3.07, 3.07, 3.07, 2.5, 2.53, 2.53, 2.51, 2.51, 2.23, 2.48, 2.22, 2.44, 2.4, 2.84, 2.84, 3.08, 2.84, 2.84, 2.4, 2.47, 2.51, 3.45, 3.45, 3.68, 3.42, 3.42, 3.42, 4.1, 4.75, 5.35, 6.15, 6.95, 7.48, 8.55, 8.82, 8.82, 7.35, 6.51, 7.03, 8.05, 8.82, 9.39, 8.41, 6.26, 5.75, 6.21, 7.42, 8.22, 5.76, 3.45, 4.26, 6.18, 8.12, 8.85, 7.47, 4.85, 3.97, 3.58, 3.97, 4.73, 5.2, 5.46, 5.06, 4.95, 4.29, 4.03, 4.37, 4.5, 5.78, 5.78, 5.28, 5.28, 0.58, 0.58, 0.58, 0.53, 0.59, 0.59, 0.53, 0.58, 0.58, 0.58, 0.0, 0.0, 0.0, 0.0, 0.54, 1.84, 2.91, 3.39, 3.87, 4.11, 4.11, 3.88, 3.88, 3.72, 3.72, 3.35, 3.6, 3.2, 4.0, 2.5, 2.5, 2.53, 2.51, 2.23, 2.23, 1.8, 1.76, 2.22, 2.44, 2.84, 2.84, 2.84, 2.4, 2.4, 1.88, 1.16, 1.8, 2.29, 2.77, 2.77, 2.77, 2.77, 2.96, 2.77, 3.47, 5.01, 5.93, 6.51, 6.95, 8.0, 9.49, 8.55, 6.07, 5.77, 6.4, 6.44, 6.44, 7.21, 7.97, 7.06, 5.36, 4.47, 5.81, 8.49, 9.7, 8.01, 5.89, 5.89, 5.76, 6.01, 5.59, 3.95, 4.02, 3.97, 4.52, 5.01, 5.35, 5.03, 4.96, 3.6, 2.99, 2.18, 2.31, 3.06, 4.4, 4.4, 4.4, 4.4, 0.0, 0.0, 0.58, 0.58, 0.53, 0.53, 0.58, 0.58, 0.58, 0.58, 0.0, 0.0, 0.0, 0.0, 0.0, 1.08, 2.53, 2.79, 3.7, 4.11, 3.88, 4.27, 4.27, 3.88, 3.88, 3.72, 3.35, 3.35, 3.45, 3.58, 3.07, 2.53, 2.51, 2.23, 2.23, 2.0, 1.76, 1.76, 2.44, 2.44, 2.2, 2.4, 1.88, 1.7, 1.7, 1.7, 1.67, 1.8, 2.29, 2.29, 2.29, 2.29, 2.96, 2.96, 3.45, 4.74, 5.01, 6.15, 6.7, 7.87, 8.51, 8.14, 7.31, 5.81, 6.28, 6.94, 6.44, 5.82, 6.71, 6.36, 5.59, 3.58, 3.9, 5.77, 10.12, 10.54, 8.12, 5.89, 4.65, 3.6, 3.47, 4.02, 4.85, 5.75, 5.29, 5.37, 5.36, 5.34, 4.4, 3.32, 2.44, 1.49, 0.76, 0.73, 1.4, 3.36, 2.97, 2.97, 0.0, 0.0, 0.58, 0.58, 0.58, 0.58, 0.58, 0.58, 0.58, 0.53, 0.53, 0.0, 0.0, 0.0, 0.0, 0.58, 1.14, 2.48, 3.88, 4.11, 4.27, 4.27, 4.0, 4.0, 4.0, 3.78, 3.43, 3.35, 3.35, 2.79, 2.79, 2.53, 2.23, 2.23, 2.48, 2.22, 1.76, 1.76, 1.76, 1.94, 1.73, 1.88, 1.7, 1.7, 1.7, 1.7, 1.84, 1.67, 1.8, 1.8, 2.32, 2.29, 2.96, 3.42, 4.1, 4.45, 5.01, 5.35, 6.51, 7.48, 10.7, 9.6, 8.24, 7.15, 6.07, 6.8, 6.94, 6.7, 6.61, 6.61, 6.07, 5.2, 4.24, 5.2, 8.31, 10.65, 10.04, 7.9, 4.46, 1.79, 1.9, 4.02, 6.07, 6.64, 6.35, 6.01, 5.72, 5.08, 4.5, 3.32, 1.58, 0.84, 0.0, 0.0, 0.0, 2.17, 2.17, 2.17, 0.0, 0.0, 0.0, 0.58, 0.58, 0.58, 0.58, 0.58, 0.58, 0.57, 0.57, 0.0, 0.0, 0.0, 0.0, 0.0, 0.57, 1.88, 3.43, 4.27, 4.27, 4.0, 4.0, 4.0, 4.0, 3.78, 3.78, 3.43, 3.35, 3.14, 2.79, 2.53, 2.53, 2.51, 2.23, 2.48, 2.22, 2.22, 1.76, 1.73, 1.73, 1.73, 1.88, 1.88, 1.88, 1.7, 1.7, 1.7, 1.84, 1.84, 1.8, 2.29, 2.96, 3.42, 4.47, 4.75, 5.06, 5.06, 6.51, 8.72, 9.86, 11.13, 9.11, 7.6, 6.71, 6.79, 6.7, 7.21, 6.65, 6.21, 6.07, 6.79, 5.81, 4.84, 6.79, 9.96, 12.84, 12.16, 8.03, 3.35, 2.24, 4.24, 6.4, 6.7, 6.32, 6.01, 5.63, 4.83, 4.0, 3.27, 1.73, 0.83, 0.0, -0.72, -0.78, 0.0, 0.77, 0.77, 0.0, 0.0, 0.0, 0.58, 0.58, 0.58, 0.58, 0.58, 0.57, 0.57, 0.57, 0.57, 0.0, 0.0, 0.0, 0.0, 0.56, 1.84, 3.15, 4.0, 4.0, 4.0, 4.0, 4.0, 4.0, 3.48, 3.48, 3.43, 3.16, 3.14, 2.79, 2.53, 2.53, 2.23, 2.23, 2.48, 2.22, 1.76, 1.73, 1.73, 1.19, 1.73, 1.73, 1.73, 1.73, 1.19, 1.19, 1.19, 1.16, 1.7, 1.67, 2.49, 2.77, 4.1, 4.75, 4.75, 5.08, 5.65, 6.51, 8.72, 9.86, 10.47, 9.6, 8.01, 6.26, 6.14, 5.75, 6.7, 7.1, 6.26, 6.61, 6.94, 6.8, 5.21, 6.16, 9.36, 12.86, 14.5, 12.42, 7.85, 5.37, 5.43, 6.06, 6.35, 6.24, 5.86, 4.96, 4.26, 3.4, 3.33, 2.6, 1.83, 0.0, 0.0, -0.81, -0.76, 0.0, 0.0, 0.0, 0.0, 0.0, 0.0, 0.53, 0.53, 0.53, 0.53, 0.57, 0.57, 0.57, 0.61, 0.0, 0.0, 0.0, 0.0, 0.0, 1.14, 2.86, 4.0, 4.0, 4.37, 4.0, 4.0, 3.48, 3.48, 3.48, 2.86, 3.16, 2.84, 3.14, 2.53, 2.53, 2.53, 1.84, 1.8, 1.76, 1.94, 1.73, 1.19, 1.19, 1.57, 1.73, 1.84, 1.73, 1.08, 0.55, 0.55, 1.19, 1.7, 2.16, 3.0, 3.68, 4.1, 4.75, 5.38, 5.38, 5.98, 7.48, 8.72, 9.86, 10.47, 9.6, 8.36, 7.11, 6.26, 5.59, 6.98, 7.11, 6.71, 6.65, 7.21, 7.07, 7.2, 5.75, 6.71, 8.4, 10.58, 11.19, 10.94, 9.17, 7.96, 7.33, 6.68, 5.64, 4.94, 3.79, 3.33, 3.63, 3.48, 3.58, 3.35, 2.21, 0.0, 0.0, 0.0, 0.0, 0.0, 0.0, 0.0, 0.0, 0.0, 0.0, 0.57, 0.57, 0.57, 0.0, 0.0, 0.57, 0.0, 0.0, 0.0, 0.0, 0.0, 0.0, 0.57, 2.4, 3.48, 4.07, 4.07, 3.73, 3.48, 3.48, 3.48, 3.15, 2.86, 2.86, 2.84, 2.84, 2.79, 2.53, 1.88, 1.61, 1.6, 1.58, 1.08, 1.19, 1.19, 1.08, 1.23, 1.76, 1.7, 1.73, 1.19, 0.63, 1.08, 1.73, 2.36, 2.8, 3.45, 3.42, 3.84, 4.47, 5.1, 6.01, 6.28, 7.48, 8.72, 9.86, 10.47, 10.52, 8.33, 7.11, 6.26, 6.71, 7.11, 7.6, 7.6, 8.01, 8.87, 8.22, 7.67, 5.75, 3.58, 4.0, 5.36, 8.01, 10.01, 10.78, 9.56, 8.58, 6.7, 4.74, 4.01, 3.35, 3.16, 4.0, 3.9, 4.47, 4.02, 3.58, 2.68, 1.58, 0.0, 0.0, 0.0, 0.0, 0.0, 0.0, 0.0, 0.0, 0.0, 0.0, 0.0, 0.0, 0.0, 0.0, 0.0, 0.0, 0.0, 0.0, 0.0, 0.0, 0.0, 1.7, 3.49, 4.07, 4.07, 4.07, 3.48, 3.48, 3.15, 2.86, 2.86, 2.86, 2.84, 2.84, 2.84, 2.53, 1.88, 1.61, 1.33, 1.27, 1.23, 1.08, 1.19, 1.19, 1.08, 1.23, 1.23, 1.84, 1.73, 1.57, 1.94, 2.4, 3.04, 3.45, 3.68, 3.84, 4.08, 5.1, 5.41, 6.28, 7.61, 7.87, 8.3, 9.39, 10.04, 8.77, 9.33, 7.97, 6.61, 5.81, 6.26, 8.05, 8.9, 8.9, 8.9, 8.17, 8.8, 7.44, 3.93, 3.93, 5.37, 8.22, 10.15, 10.46, 9.84, 8.55, 6.07, 3.83, 2.53, 3.2, 3.58, 4.47, 4.38, 4.82, 4.38, 3.9, 2.97, 2.24, 1.79, 0.0, 0.0, 0.0, 0.0, 0.0, 0.0, 0.0, 0.0, 0.0, 0.0, 0.0, 0.0, 0.0, 0.0, 0.0, 0.0, 0.0, 0.0, 0.0, 0.0, 1.67, 3.12, 3.49, 3.79, 3.79, 3.48, 3.48, 2.86, 2.86, 2.44, 2.48, 2.86, 2.84, 2.84, 2.23, 2.23, 1.61, 1.33, 1.13, 1.11, 1.08, 1.19, 1.19, 0.55, 0.57, 0.57, 1.08, 1.72, 2.4, 3.08, 3.47, 3.45, 3.45, 3.68, 4.1, 4.75, 5.38, 6.01, 6.28, 7.35, 7.87, 8.22, 9.39, 10.01, 10.96, 9.77, 9.11, 7.74, 5.31, 7.15, 8.05, 9.36, 9.39, 8.94, 7.97, 8.22, 8.15, 8.15, 9.6, 9.65, 10.04, 10.63, 10.81, 10.18, 8.8, 5.31, 2.68, 2.68, 3.47, 4.0, 4.57, 4.22, 4.22, 3.93, 3.58, 2.98, 2.8, 2.24, 1.79, 1.79, 0.0, 0.0, 0.0, 0.0, 0.0, 0.0, 0.0, 0.0, 0.0, 0.0, 0.0, 0.0, 0.0, 0.0, 0.0, 0.0, 0.0, 0.0, 0.0, 2.4, 3.49, 3.49, 3.49, 3.2, 2.86, 2.86, 2.44, 2.44, 2.22, 2.48, 2.86, 2.84, 2.51, 2.23, 1.84, 1.84, 1.27, 1.11, 1.23, 0.55, 0.61, 0.55, 0.55, 0.55, 1.19, 1.7, 3.04, 3.47, 3.22, 3.45, 3.45, 4.1, 4.1, 4.75, 5.38, 6.01, 6.87, 7.35, 7.61, 8.22, 8.96, 10.01, 10.13, 10.04, 9.6, 8.24, 7.52, 7.6, 8.49, 9.39, 8.94, 8.05, 8.41, 8.14, 8.79, 10.21, 11.83, 13.04, 12.23, 12.27, 11.44, 10.81, 8.48, 4.41, 1.74, 2.84, 3.93, 3.93, 3.48, 3.79, 3.79, 3.79, 3.48, 2.68, 2.21, 2.4, 2.4, 2.4, -0.56, -0.56, 0.0, 0.0, 0.0, 0.0, 0.0, 0.0, 0.0, 0.0, 0.0, 0.0, 0.0, 0.0, 0.0, 0.0, 0.0, 0.0, 0.0, 2.4, 3.12, 3.49, 3.49, 3.12, 2.86, 2.86, 2.44, 2.44, 2.44, 2.22, 2.48, 2.48, 2.51, 2.51, 1.8, 1.8, 1.27, 1.11, 0.63, 0.55, 0.55, 0.55, 0.55, 1.19, 1.16, 2.36, 2.8, 2.8, 3.22, 3.45, 3.45, 4.1, 4.47, 5.08, 5.38, 5.69, 6.87, 7.35, 7.61, 8.22, 8.91, 9.57, 10.58, 11.44, 10.04, 8.67, 7.97, 8.49, 8.94, 8.94, 7.6, 7.6, 8.05, 8.36, 8.33, 9.33, 11.09, 12.79, 13.19, 12.86, 12.52, 10.81, 7.76, 3.83, 1.49, 2.3, 3.48, 3.48, 2.76, 2.76, 2.76, 3.35, 3.35, 2.0, 2.23, 1.98, 1.98, 1.98, -0.59, -0.59, 0.0, 0.0, 0.0, 0.0, 0.0, 0.0, 0.0, 0.0, 0.0, 0.0, 0.0, 0.0, 0.0, 0.0, -0.54, -0.54, 0.0, 1.7, 2.2, 3.12, 2.84, 2.84, 2.84, 2.2, 2.2, 2.2, 2.2, 2.44, 2.22, 2.48, 2.23, 2.23, 1.8, 1.8, 1.11, 1.23, 0.63, 0.55, 0.55, 0.55, 1.19, 1.7, 1.7, 2.36, 3.04, 3.04, 3.47, 3.47, 3.45, 4.1, 4.47, 5.08, 5.69, 6.28, 6.87, 7.35, 7.61, 8.0, 8.91, 9.54, 10.47, 10.94, 11.88, 9.11, 7.97, 8.49, 8.94, 8.49, 8.05, 8.05, 8.05, 8.46, 8.8, 9.54, 9.9, 10.23, 11.75, 12.23, 12.89, 11.8, 7.98, 3.58, 1.66, 1.41, 2.2, 2.76, 2.76, 2.76, 2.6, 3.22, 3.63, 2.76, 2.95, 3.16, 3.16, 3.16, -0.59, -0.59, -0.59, 0.0, 0.0, 0.0, 0.0, 0.0, 0.0, 0.0, 0.0, 0.0, 0.0, -0.59, -0.55, -0.58, -0.58, -0.58, 0.0, 0.0, 2.2, 2.84, 2.84, 2.84, 2.4, 2.4, 2.2, 1.73, 1.73, 1.73, 2.22, 2.22, 2.23, 1.8, 1.8, 1.11, 1.11, 0.63, 0.55, 0.55, 1.08, 1.19, 1.7, 1.7, 2.36, 2.36, 2.82, 3.04, 3.47, 3.47, 4.12, 4.12, 4.75, 5.37, 5.69, 6.28, 6.87, 7.35, 7.61, 8.0, 8.91, 9.54, 10.01, 11.37, 10.94, 9.11, 8.05, 8.49, 9.39, 8.49, 8.05, 8.49, 8.49, 8.9, 9.7, 9.97, 9.75, 9.2, 10.0, 10.63, 11.53, 12.52, 9.65, 3.9, 0.79, 0.88, 1.41, 1.83, 1.83, 2.6, 3.76, 3.63, 3.63, 3.35, 2.95, 2.68, 2.68, 2.68, -1.09, -1.09, -0.55, 0.0, 0.0, 0.0, 0.0, 0.0, 0.0, 0.0, 0.0, -0.55, -0.55, -0.55, -0.55, -0.58, -0.58, 0.0, 0.0, 0.0, 1.88, 2.4, 2.4, 2.4, 2.4, 2.4, 2.4, 1.88, 1.73, 1.73, 1.73, 1.76, 1.76, 1.8, 1.11, 1.11, 1.23, 1.23, 1.08, 1.19, 1.73, 1.88, 2.18, 2.36, 2.36, 2.82, 2.82, 2.82, 3.47, 3.47, 3.84, 4.12, 4.75, 5.37, 5.69, 6.28, 6.87, 7.35, 8.15, 8.0, 8.91, 9.11, 9.57, 10.94, 10.94, 9.16, 8.05, 8.94, 9.83, 9.36, 8.94, 8.94, 9.36, 9.8, 10.16, 9.97, 9.24, 8.95, 9.6, 10.0, 10.63, 11.9, 11.9, 5.31, -0.0, -0.0, 1.49, 3.16, 3.93, 3.79, 3.79, 4.6, 4.6, 3.93, 3.58, 2.84, 2.84, 2.84, -1.09, -1.09, -0.55, -0.59, -0.59, -0.55, -0.55, -0.58, -0.58, -0.58, -0.58, -1.09, -1.09, -1.09, -1.09, -0.55, 0.0, 0.0, 0.0, 0.0, 0.57, 2.4, 2.4, 2.18, 2.18, 2.18, 1.7, 1.7, 1.7, 1.7, 1.73, 1.73, 1.76, 1.76, 1.23, 1.23, 1.08, 1.19, 1.73, 1.73, 2.4, 2.18, 2.36, 2.36, 3.08, 2.84, 3.08, 3.08, 3.22, 3.47, 3.84, 4.12, 4.75, 5.06, 5.98, 6.28, 7.15, 7.35, 8.15, 8.0, 8.3, 9.11, 9.57, 10.47, 10.94, 10.04, 9.39, 9.39, 9.83, 9.36, 9.39, 9.39, 9.83, 10.25, 10.25, 9.7, 8.82, 8.95, 10.0, 10.55, 10.85, 11.83, 13.51, 9.45, -0.0, -0.0, 3.16, 4.93, 5.36, 4.92, 4.82, 4.82, 4.82, 4.34, 3.9, 3.39, 3.39, 3.39, -1.18, -1.18, -1.73, -1.18, -1.18, -1.18, -0.55, -0.58, -1.16, -1.16, -1.16, -1.16, -1.09, -1.09, -0.59, -0.59, 0.0, 0.0, 0.0, 0.0, 0.56, 1.7, 2.18, 2.36, 2.36, 1.84, 1.84, 1.7, 1.7, 1.7, 1.7, 1.73, 1.73, 1.73, 1.57, 1.73, 1.73, 1.73, 1.88, 2.4, 2.18, 2.36, 2.36, 2.82, 3.08, 2.84, 3.08, 3.49, 3.49, 3.47, 3.84, 4.45, 4.45, 5.06, 5.98, 6.57, 6.79, 7.35, 7.61, 8.0, 8.3, 9.07, 9.11, 10.14, 11.04, 10.16, 9.39, 9.39, 9.83, 9.39, 9.39, 8.9, 9.39, 9.83, 9.8, 9.06, 8.82, 9.49, 10.55, 10.85, 10.68, 10.85, 12.86, 13.51, 5.09, 0.76, 5.86, 7.11, 7.56, 7.06, 5.86, 5.29, 4.92, 4.38, 3.9, 3.39, 3.39, 3.39, -1.73, -2.26, -1.73, -1.73, -1.73, -1.18, -1.09, -1.16, -1.16, -1.16, -1.16, -1.16, -0.55, -0.55, 0.0, 0.0, 0.0, 0.0, 0.0, 0.0, 0.55, 1.67, 2.36, 2.36, 1.84, 1.84, 1.84, 1.84, 1.84, 1.84, 1.7, 1.7, 1.7, 1.73, 1.73, 1.73, 1.88, 1.88, 2.18, 2.18, 2.36, 2.36, 2.82, 2.82, 3.08, 3.08, 3.49, 3.49, 3.47, 3.47, 3.84, 4.74, 4.74, 5.37, 5.98, 6.23, 6.79, 7.15, 7.61, 8.0, 8.22, 8.48, 9.11, 9.68, 10.6, 11.15, 10.28, 9.83, 10.28, 9.83, 9.83, 8.94, 8.01, 8.49, 8.45, 8.14, 8.82, 9.9, 10.85, 10.85, 10.25, 9.75, 10.55, 11.82, 9.31, 4.19, 5.43, 6.36, 8.05, 9.18, 8.88, 7.03, 5.43, 4.6, 4.4, 3.6, 3.6, 3.6, -2.26, -2.4, -2.4, -2.26, -1.73, -1.73, -1.73, -1.09, -1.16, -0.58, -0.58, -0.58, 0.0, 0.0, 0.0, 0.0, 0.0, 0.0, 0.0, 0.0, 0.55, 1.1, 2.36, 2.36, 1.67, 1.67, 1.67, 1.67, 1.84, 1.84, 1.84, 1.84, 1.7, 1.7, 1.7, 1.7, 1.7, 2.18, 2.18, 2.36, 2.36, 2.82, 2.82, 2.82, 3.08, 3.49, 3.49, 3.22, 3.47, 3.84, 3.84, 4.74, 4.74, 5.37, 5.65, 6.23, 6.57, 6.79, 7.61, 7.61, 8.22, 8.48, 9.11, 9.68, 10.58, 11.16, 10.73, 10.25, 9.83, 8.94, 9.39, 9.39, 8.49, 7.6, 7.11, 7.63, 8.82, 10.25, 10.68, 10.25, 9.75, 9.24, 8.4, 8.42, 6.51, 4.92, 4.66, 6.21, 7.6, 9.4, 10.09, 8.93, 7.44, 5.82, 4.6, 3.58, 3.58, 3.58, -2.23, -2.23, -2.4, -2.26, -1.73, -1.73, -1.09, -1.16, -0.58, -0.58, 0.0, 0.0, 0.0, 0.0, 0.0, 0.0, 0.0, 0.0, 0.0, 0.0, 0.58, 1.18, 2.32, 2.16, 1.67, 1.67, 1.67, 1.67, 1.67, 1.67, 1.67, 1.67, 1.84, 1.84, 1.7, 1.7, 2.18, 2.36, 2.36, 2.36, 2.36, 2.82, 2.82, 2.82, 3.22, 3.49, 3.22, 3.47, 3.47, 3.84, 4.12, 4.74, 4.74, 5.06, 5.65, 5.98, 6.23, 6.79, 6.79, 7.61, 7.81, 8.42, 8.64, 9.23, 10.14, 11.16, 11.6, 11.06, 9.8, 8.49, 8.49, 8.94, 8.49, 8.49, 7.11, 7.42, 9.11, 10.89, 10.45, 9.54, 8.82, 8.4, 7.44, 7.36, 6.71, 5.09, 5.31, 6.66, 7.92, 8.91, 9.52, 9.52, 8.05, 6.8, 5.2, 3.58, 3.58, 3.58, -2.23, -2.23, -1.71, -1.71, -1.71, -1.71, -1.16, -1.16, -0.58, -0.54, 0.0, 0.0, 0.0, 0.57, 0.57, 0.57, 0.57, 0.57, 0.54, 0.54, 0.58, 0.55, 1.8, 2.32, 1.8, 1.8, 1.8, 1.8, 1.67, 1.67, 1.67, 1.14, 1.67, 1.67, 1.84, 1.84, 2.36, 2.36, 2.36, 2.36, 2.82, 2.82, 2.82, 2.82, 3.22, 3.47, 3.47, 3.47, 3.47, 3.84, 4.12, 4.74, 4.75, 5.06, 5.37, 5.65, 5.98, 6.23, 6.79, 7.23, 7.71, 8.0, 8.64, 9.23, 9.68, 10.71, 11.11, 11.04, 9.8, 8.49, 7.56, 7.6, 8.05, 8.45, 8.01, 8.45, 9.8, 11.06, 10.45, 9.06, 8.63, 8.4, 7.36, 8.05, 7.22, 5.46, 6.0, 7.98, 8.91, 9.08, 8.88, 8.88, 7.76, 6.94, 5.51, 4.34, 4.34, 4.34, -1.69, -1.69, -1.69, -1.69, -1.69, -1.14, -1.16, -1.07, -0.54, 0.0, 0.0, 0.0, 0.57, 0.57, 1.2, 1.12, 1.12, 0.57, 0.57, 0.57, 0.54, 0.58, 1.18, 1.8, 1.8, 1.65, 1.65, 1.12, 1.12, 1.23, 1.14, 1.14, 1.14, 1.14, 1.84, 1.84, 2.36, 2.36, 2.36, 2.36, 2.82, 2.82, 2.82, 3.04, 3.47, 3.47, 3.47, 3.47, 3.47, 3.84, 4.12, 4.74, 4.45, 5.06, 5.06, 5.37, 5.98, 6.23, 7.07, 7.23, 7.48, 8.0, 8.17, 8.77, 9.23, 10.27, 11.16, 11.04, 10.16, 8.46, 7.55, 6.71, 7.15, 7.56, 8.05, 8.05, 9.39, 9.83, 9.7, 9.06, 9.06, 9.24, 9.96, 10.75, 9.48, 7.81, 8.3, 9.33, 9.18, 9.18, 8.8, 8.14, 7.12, 6.2, 5.36, 4.02, 4.02, 4.02, -1.78, -1.78, -1.78, -1.2, -1.2, -1.14, -1.14, -0.57, -0.57, 0.0, 0.0, 0.0, 0.57, 0.57, 0.56, 0.56, 0.56, 0.56, 0.57, 0.57, 0.57, 0.57, 0.55, 1.65, 1.8, 1.65, 1.76, 1.2, 1.2, 1.12, 1.12, 1.12, 1.14, 1.14, 1.67, 1.84, 2.36, 2.36, 2.36, 2.36, 3.04, 3.04, 3.04, 3.04, 3.47, 3.47, 3.47, 3.72, 3.72, 4.12, 4.12, 4.12, 4.45, 4.75, 5.06, 5.37, 5.65, 6.23, 6.51, 7.07, 7.48, 7.51, 7.74, 8.17, 8.79, 9.82, 10.28, 10.6, 9.68, 8.9, 8.05, 7.15, 6.71, 7.15, 7.6, 7.6, 7.6, 8.49, 8.8, 9.06, 9.54, 10.15, 10.9, 12.22, 11.82, 10.29, 9.34, 9.86, 9.74, 9.08, 7.76, 6.98, 6.21, 5.81, 4.92, 3.9, 3.9, 3.9, -1.12, -1.12, -1.12, -1.12, -1.12, -1.12, -0.56, -0.57, 0.0, 0.0, 0.0, 0.0, 0.57, 0.56, 0.56, 0.56, 0.56, 0.56, 0.57, 0.57, 0.57, 0.57, 0.58, 1.12, 1.65, 1.65, 1.2, 1.2, 1.1, 1.1, 1.2, 1.2, 1.12, 1.8, 1.67, 1.67, 2.16, 2.16, 2.32, 2.32, 2.8, 2.8, 2.8, 3.22, 3.22, 3.45, 3.45, 3.45, 3.72, 4.12, 4.12, 4.12, 4.45, 4.75, 4.75, 5.37, 5.65, 5.98, 6.51, 6.7, 6.95, 7.31, 7.69, 8.17, 8.77, 9.37, 10.28, 10.22, 10.13, 9.26, 8.46, 7.6, 7.15, 7.15, 7.6, 7.56, 8.05, 8.05, 8.46, 8.8, 9.75, 10.15, 10.66, 11.25, 11.82, 11.25, 10.94, 10.53, 10.4, 9.18, 7.12, 5.81, 5.81, 5.29, 4.57, 2.98, 2.98, 2.98, -1.12, -1.12, -1.12, -1.12, -1.12, -0.56, -0.56, -0.56, 0.0, 0.0, 0.0, 0.0, 0.0, 0.0, 0.0, 0.56, 0.56, 0.56, 0.56, 0.57, 0.57, 0.57, 0.57, 1.2, 1.12, 1.12, 1.2, 1.1, 1.18, 1.18, 1.73, 1.73, 1.76, 1.76, 1.65, 2.32, 2.32, 2.32, 2.32, 2.32, 2.8, 2.8, 3.0, 3.45, 3.45, 3.45, 3.45, 3.45, 3.45, 4.12, 4.12, 4.12, 4.12, 4.47, 4.47, 5.08, 5.37, 5.65, 6.51, 6.51, 6.95, 6.8, 7.09, 7.69, 8.33, 8.87, 9.83, 9.77, 9.68, 10.16, 9.36, 8.05, 7.15, 6.71, 7.11, 8.01, 8.36, 8.01, 8.01, 9.54, 9.75, 10.0, 10.28, 10.63, 11.2, 11.64, 11.6, 11.2, 11.04, 10.01, 6.71, 4.4, 4.57, 4.57, 3.58, 2.84, 2.84, 2.84, -1.18, -1.18, -1.18, -1.18, -1.18, -0.56, -0.56, 0.0, 0.0, 0.0, 0.0, 0.0, 0.0, 0.0, 0.0, 0.0, 0.56, 0.56, 0.56, 0.57, 0.57, 0.57, 0.57, 0.58, 1.2, 1.12, 1.2, 1.1, 1.18, 1.18, 1.61, 1.71, 1.73, 2.26, 2.29, 2.29, 2.29, 2.29, 2.29, 2.29, 3.0, 3.0, 3.0, 3.0, 3.45, 3.45, 3.45, 3.45, 3.45, 3.45, 4.12, 4.12, 4.1, 4.47, 4.75, 5.08, 5.37, 5.65, 5.93, 6.15, 6.41, 6.8, 7.01, 7.26, 8.3, 8.86, 9.39, 9.37, 9.68, 9.68, 9.32, 8.46, 7.6, 6.65, 7.11, 7.89, 8.8, 8.8, 8.8, 9.49, 9.75, 10.43, 10.63, 10.28, 10.58, 10.91, 11.6, 11.2, 11.3, 10.4, 6.26, 3.48, 3.48, 2.95, 2.95, 1.8, 1.8, 1.8, -1.18, -1.18, -1.18, -1.18, -0.59, -0.56, -0.56, 0.0, 0.0, 0.0, 0.0, 0.0, 0.0, 0.0, 0.0, 0.0, 0.0, 0.56, 0.56, 0.56, 0.57, 0.57, 0.57, 0.57, 0.59, 0.56, 0.61, 0.56, 0.59, 1.18, 1.16, 1.71, 1.71, 2.23, 2.26, 2.26, 2.26, 2.44, 2.29, 2.29, 2.77, 2.77, 3.0, 2.77, 2.77, 2.77, 2.77, 3.45, 3.45, 3.45, 3.45, 3.85, 4.1, 4.1, 4.75, 5.08, 5.37, 5.65, 5.93, 5.93, 6.41, 6.67, 6.8, 7.01, 7.74, 8.42, 8.94, 9.39, 9.32, 9.68, 9.23, 9.36, 8.49, 7.6, 7.55, 8.33, 8.8, 9.24, 9.24, 9.7, 9.97, 10.43, 10.55, 10.9, 11.28, 11.66, 11.6, 11.6, 11.3, 11.04, 6.98, 2.68, 2.2, 2.2, 1.83, 1.49, 1.49, 1.49, -1.18, -1.18, -1.18, -1.18, -0.59, -0.56, -0.56, 0.0, 0.0, 0.0, 0.0, 0.0, 0.0, 0.0, 0.0, 0.0, 0.0, 0.0, 0.0, 0.0, 0.57, 0.57, 0.57, 0.57, 0.58, 0.55, 0.56, 0.56, 0.59, 0.55, 1.16, 1.16, 1.71, 2.23, 2.23, 2.23, 2.26, 2.26, 2.26, 2.44, 2.96, 2.77, 2.77, 2.77, 2.96, 2.96, 2.96, 3.42, 3.45, 3.45, 3.45, 4.1, 4.1, 4.1, 4.75, 4.75, 5.08, 5.37, 5.35, 5.59, 5.86, 6.03, 6.67, 7.01, 7.69, 8.33, 8.92, 8.94, 9.32, 9.23, 9.24, 8.87, 8.05, 8.49, 8.45, 8.9, 9.24, 9.35, 9.8, 9.8, 9.7, 10.25, 10.85, 11.02, 11.66, 12.27, 12.23, 12.15, 11.83, 11.28, 8.95, 3.35, 1.55, 1.55, 1.55, 1.08, 1.08, 1.08, -1.18, -1.18, -1.18, -1.18, -0.59, -0.56, -0.56, 0.0, 0.0, 0.0, 0.0, 0.0, 0.0, 0.0, 0.0, 0.0, 0.0, 0.0, 0.0, 0.0, 0.57, 0.57, 0.57, 0.57, 0.58, 0.55, 0.56, 0.56, 0.59, 0.55, 1.16, 1.16, 1.71, 2.23, 2.23, 2.23, 2.26, 2.26, 2.26, 2.44, 2.96, 2.77, 2.77, 2.77, 2.96, 2.96, 2.96, 3.42, 3.45, 3.45, 3.45, 4.1, 4.1, 4.1, 4.75, 4.75, 5.08, 5.37, 5.35, 5.59, 5.86, 6.03, 6.67, 7.01, 7.69, 8.33, 8.92, 8.94, 9.32, 9.23, 9.24, 8.87, 8.05, 8.49, 8.45, 8.9, 9.24, 9.35, 9.8, 9.8, 9.7, 9.97, 10.25, 10.55, 11.6, 12.23, 12.39, 12.23, 11.83, 10.9, 9.65, 5.73, 1.8, 1.83, 1.83, 1.66, 1.66, 1.66]}]